Wetterdaten: Sonntag, 16.04.2017
Datum Zeit Temp. Aussen Temp. o. S. +5cm Feuchte Auss BlattFeu 1 Luftdruck Regen Sonnenschein Regendauer Solar Windben Empfang
16.04.2017 00:00 5,2 C 5,0 C 2,8 C 81 % 0 lf 1016,7 hPa 0,0 l/m 0 min 0 min 0 W/m 10,5 km/h (2 Bft) 93,62 %
16.04.2017 00:02 5,2 C 5,0 C 2,8 C 81 % 0 lf 1016,7 hPa 0,0 l/m 0 min 0 min 0 W/m 8,4 km/h (2 Bft) 93,02 %
16.04.2017 00:04 5,2 C 5,0 C 2,8 C 82 % 0 lf 1016,6 hPa 0,0 l/m 0 min 0 min 0 W/m 8,4 km/h (2 Bft) 93,62 %
16.04.2017 00:06 5,2 C 5,0 C 2,8 C 82 % 0 lf 1016,6 hPa 0,0 l/m 0 min 0 min 0 W/m 10,5 km/h (2 Bft) 91,49 %
16.04.2017 00:10 5,2 C 5,0 C 3,3 C 82 % 0 lf 1016,5 hPa 0,0 l/m 0 min 0 min 0 W/m 10,5 km/h (2 Bft) 94,68 %
16.04.2017 00:12 5,2 C 5,0 C 3,3 C 82 % 0 lf 1016,3 hPa 0,0 l/m 0 min 0 min 0 W/m 10,5 km/h (2 Bft) 97,87 %
16.04.2017 00:14 5,2 C 5,0 C 3,3 C 82 % 0 lf 1016,8 hPa 0,0 l/m 0 min 0 min 0 W/m 8,4 km/h (2 Bft) 95,74 %
16.04.2017 00:16 5,2 C 5,0 C 3,3 C 82 % 0 lf 1016,8 hPa 0,0 l/m 0 min 0 min 0 W/m 8,4 km/h (2 Bft) 97,87 %
16.04.2017 00:18 5,2 C 5,0 C 3,3 C 82 % 0 lf 1016,7 hPa 0,0 l/m 0 min 0 min 0 W/m 8,4 km/h (2 Bft) 97,87 %
16.04.2017 00:20 5,2 C 5,0 C 3,3 C 82 % 0 lf 1016,7 hPa 0,0 l/m 0 min 0 min 0 W/m 10,5 km/h (2 Bft) 97,83 %
16.04.2017 00:22 5,2 C 5,0 C 3,3 C 82 % 0 lf 1016,7 hPa 0,0 l/m 0 min 0 min 0 W/m 6,3 km/h (2 Bft) 91,49 %
16.04.2017 00:24 5,2 C 5,0 C 3,3 C 82 % 0 lf 1016,8 hPa 0,0 l/m 0 min 0 min 0 W/m 6,3 km/h (2 Bft) 97,87 %
16.04.2017 00:26 5,2 C 5,0 C 3,3 C 83 % 0 lf 1016,8 hPa 0,0 l/m 0 min 0 min 0 W/m 8,4 km/h (2 Bft) 97,87 %
16.04.2017 00:28 5,2 C 5,6 C 3,9 C 83 % 0 lf 1016,7 hPa 0,0 l/m 0 min 0 min 0 W/m 6,3 km/h (2 Bft) 97,87 %
16.04.2017 00:30 5,2 C 5,6 C 3,9 C 83 % 0 lf 1016,7 hPa 0,0 l/m 0 min 0 min 0 W/m 8,4 km/h (2 Bft) 93,62 %
16.04.2017 00:32 5,2 C 5,6 C 3,9 C 83 % 0 lf 1016,8 hPa 0,0 l/m 0 min 0 min 0 W/m 8,4 km/h (2 Bft) 95,65 %
16.04.2017 00:34 5,2 C 5,6 C 3,9 C 83 % 0 lf 1016,8 hPa 0,0 l/m 0 min 0 min 0 W/m 8,4 km/h (2 Bft) 95,74 %
16.04.2017 00:36 5,2 C 5,6 C 3,9 C 83 % 0 lf 1016,8 hPa 0,0 l/m 0 min 0 min 0 W/m 6,3 km/h (2 Bft) 97,87 %
16.04.2017 00:38 5,2 C 5,6 C 3,9 C 83 % 0 lf 1016,8 hPa 0,0 l/m 0 min 0 min 0 W/m 10,5 km/h (2 Bft) 95,74 %
16.04.2017 00:40 5,2 C 5,6 C 3,9 C 83 % 0 lf 1016,8 hPa 0,0 l/m 0 min 0 min 0 W/m 8,4 km/h (2 Bft) 95,74 %
16.04.2017 00:42 5,2 C 5,6 C 3,9 C 83 % 0 lf 1016,8 hPa 0,0 l/m 0 min 0 min 0 W/m 10,5 km/h (2 Bft) 97,87 %
16.04.2017 00:44 5,2 C 5,6 C 4,4 C 83 % 0 lf 1016,8 hPa 0,0 l/m 0 min 0 min 0 W/m 8,4 km/h (2 Bft) 95,65 %
16.04.2017 00:46 5,3 C 5,6 C 4,4 C 83 % 0 lf 1016,8 hPa 0,0 l/m 0 min 0 min 0 W/m 10,5 km/h (2 Bft) 95,74 %
16.04.2017 00:48 5,3 C 6,1 C 4,4 C 84 % 0 lf 1016,8 hPa 0,0 l/m 0 min 0 min 0 W/m 14,6 km/h (3 Bft) 91,49 %
16.04.2017 00:50 5,3 C 6,1 C 4,4 C 84 % 0 lf 1016,8 hPa 0,0 l/m 0 min 0 min 0 W/m 12,6 km/h (3 Bft) 95,74 %
16.04.2017 00:52 5,3 C 6,1 C 4,4 C 84 % 0 lf 1016,8 hPa 0,0 l/m 0 min 0 min 0 W/m 16,7 km/h (3 Bft) 97,87 %
16.04.2017 00:54 5,4 C 6,1 C 4,4 C 84 % 0 lf 1016,8 hPa 0,0 l/m 0 min 0 min 0 W/m 8,4 km/h (2 Bft) 95,74 %
16.04.2017 00:56 5,4 C 6,1 C 5,0 C 84 % 0 lf 1016,8 hPa 0,0 l/m 0 min 0 min 0 W/m 16,7 km/h (3 Bft) 97,83 %
16.04.2017 00:58 5,5 C 6,1 C 5,0 C 84 % 0 lf 1016,8 hPa 0,0 l/m 0 min 0 min 0 W/m 10,5 km/h (2 Bft) 97,87 %
16.04.2017 01:00 5,6 C 6,1 C 5,0 C 84 % 0 lf 1016,8 hPa 0,0 l/m 0 min 0 min 0 W/m 12,6 km/h (3 Bft) 97,87 %
16.04.2017 01:02 5,6 C 6,1 C 5,0 C 84 % 0 lf 1016,8 hPa 0,0 l/m 0 min 0 min 0 W/m 12,6 km/h (3 Bft) 95,74 %
16.04.2017 01:04 5,6 C 6,7 C 5,0 C 84 % 0 lf 1016,9 hPa 0,0 l/m 0 min 0 min 0 W/m 8,4 km/h (2 Bft) 89,36 %
16.04.2017 01:06 5,7 C 6,7 C 5,0 C 84 % 0 lf 1016,9 hPa 0,0 l/m 0 min 0 min 0 W/m 10,5 km/h (2 Bft) 93,48 %
16.04.2017 01:08 5,7 C 6,7 C 5,0 C 84 % 0 lf 1016,9 hPa 0,0 l/m 0 min 0 min 0 W/m 12,6 km/h (3 Bft) 95,74 %
16.04.2017 01:10 5,8 C 6,7 C 5,0 C 84 % 0 lf 1016,9 hPa 0,0 l/m 0 min 0 min 0 W/m 12,6 km/h (3 Bft) 93,62 %
16.04.2017 01:12 5,8 C 6,7 C 5,0 C 84 % 0 lf 1016,9 hPa 0,0 l/m 0 min 0 min 0 W/m 14,6 km/h (3 Bft) 95,74 %
16.04.2017 01:14 5,9 C 6,7 C 5,0 C 84 % 0 lf 1016,9 hPa 0,0 l/m 0 min 0 min 0 W/m 10,5 km/h (2 Bft) 93,62 %
16.04.2017 01:16 5,9 C 6,7 C 5,0 C 84 % 0 lf 1016,9 hPa 0,0 l/m 0 min 0 min 0 W/m 16,7 km/h (3 Bft) 93,62 %
16.04.2017 01:18 6,0 C 6,7 C 5,0 C 84 % 0 lf 1016,9 hPa 0,0 l/m 0 min 0 min 0 W/m 14,6 km/h (3 Bft) 95,65 %
16.04.2017 01:20 6,0 C 6,7 C 5,0 C 84 % 0 lf 1017,0 hPa 0,0 l/m 0 min 0 min 0 W/m 14,6 km/h (3 Bft) 91,49 %
16.04.2017 01:22 6,1 C 6,7 C 5,0 C 84 % 0 lf 1016,9 hPa 0,0 l/m 0 min 0 min 0 W/m 12,6 km/h (3 Bft) 95,74 %
16.04.2017 01:24 6,1 C 6,7 C 5,0 C 84 % 0 lf 1016,9 hPa 0,0 l/m 0 min 0 min 0 W/m 12,6 km/h (3 Bft) 95,74 %
16.04.2017 01:26 6,1 C 6,7 C 5,6 C 84 % 0 lf 1016,9 hPa 0,0 l/m 0 min 0 min 0 W/m 12,6 km/h (3 Bft) 93,62 %
16.04.2017 01:28 6,2 C 6,7 C 5,6 C 84 % 0 lf 1016,9 hPa 0,0 l/m 0 min 0 min 0 W/m 12,6 km/h (3 Bft) 95,74 %
16.04.2017 01:30 6,2 C 6,7 C 5,6 C 84 % 0 lf 1016,8 hPa 0,0 l/m 0 min 0 min 0 W/m 14,6 km/h (3 Bft) 93,48 %
16.04.2017 01:32 6,2 C 6,7 C 5,6 C 84 % 0 lf 1016,9 hPa 0,0 l/m 0 min 0 min 0 W/m 12,6 km/h (3 Bft) 89,36 %
16.04.2017 01:34 6,3 C 6,7 C 5,6 C 84 % 0 lf 1016,9 hPa 0,0 l/m 0 min 0 min 0 W/m 14,6 km/h (3 Bft) 93,62 %
16.04.2017 01:36 6,3 C 6,7 C 5,6 C 83 % 0 lf 1016,9 hPa 0,0 l/m 0 min 0 min 0 W/m 16,7 km/h (3 Bft) 91,49 %
16.04.2017 01:38 6,4 C 6,7 C 5,6 C 83 % 0 lf 1016,9 hPa 0,0 l/m 0 min 0 min 0 W/m 16,7 km/h (3 Bft) 91,49 %
16.04.2017 01:40 6,4 C 7,2 C 5,6 C 83 % 0 lf 1016,9 hPa 0,0 l/m 0 min 0 min 0 W/m 16,7 km/h (3 Bft) 93,62 %
16.04.2017 01:42 6,4 C 7,2 C 5,6 C 83 % 0 lf 1016,8 hPa 0,0 l/m 0 min 0 min 0 W/m 14,6 km/h (3 Bft) 93,48 %
16.04.2017 01:44 6,4 C 7,2 C 5,6 C 83 % 0 lf 1016,8 hPa 0,0 l/m 0 min 0 min 0 W/m 16,7 km/h (3 Bft) 89,36 %
16.04.2017 01:46 6,5 C 7,2 C 5,6 C 83 % 0 lf 1016,9 hPa 0,0 l/m 0 min 0 min 0 W/m 18,8 km/h (3 Bft) 93,62 %
16.04.2017 01:48 6,5 C 7,2 C 5,6 C 83 % 2 lf 1016,9 hPa 0,0 l/m 0 min 2 min 0 W/m 12,6 km/h (3 Bft) 95,74 %
16.04.2017 01:50 6,6 C 7,2 C 5,6 C 83 % 1 lf 1016,9 hPa 0,0 l/m 0 min 0 min 0 W/m 14,6 km/h (3 Bft) 95,74 %
16.04.2017 01:52 6,6 C 7,2 C 5,6 C 82 % 0 lf 1016,9 hPa 0,0 l/m 0 min 0 min 0 W/m 18,8 km/h (3 Bft) 95,74 %
16.04.2017 01:54 6,6 C 7,2 C 5,6 C 82 % 0 lf 1016,9 hPa 0,0 l/m 0 min 0 min 0 W/m 14,6 km/h (3 Bft) 95,65 %
16.04.2017 01:56 6,7 C 7,2 C 5,6 C 82 % 0 lf 1016,9 hPa 0,0 l/m 0 min 0 min 0 W/m 20,9 km/h (4 Bft) 95,74 %
16.04.2017 01:58 6,7 C 7,2 C 5,6 C 82 % 0 lf 1016,9 hPa 0,0 l/m 0 min 0 min 0 W/m 16,7 km/h (3 Bft) 97,87 %
16.04.2017 02:00 6,7 C 7,2 C 5,6 C 82 % 0 lf 1016,9 hPa 0,0 l/m 0 min 0 min 0 W/m 16,7 km/h (3 Bft) 95,74 %
16.04.2017 02:02 6,7 C 7,2 C 5,6 C 82 % 0 lf 1016,9 hPa 0,0 l/m 0 min 0 min 0 W/m 25,1 km/h (4 Bft) 100,00 %
16.04.2017 02:04 6,7 C 7,2 C 5,6 C 82 % 2 lf 1016,9 hPa 0,0 l/m 0 min 0 min 0 W/m 20,9 km/h (4 Bft) 97,87 %
16.04.2017 02:06 6,8 C 7,2 C 5,6 C 82 % 0 lf 1016,9 hPa 0,0 l/m 0 min 0 min 0 W/m 16,7 km/h (3 Bft) 100,00 %
16.04.2017 02:08 6,8 C 7,2 C 5,6 C 81 % 0 lf 1016,9 hPa 0,0 l/m 0 min 0 min 0 W/m 12,6 km/h (3 Bft) 97,87 %
16.04.2017 02:10 6,8 C 7,2 C 5,6 C 81 % 0 lf 1016,9 hPa 0,0 l/m 0 min 0 min 0 W/m 16,7 km/h (3 Bft) 100,00 %
16.04.2017 02:12 6,8 C 7,2 C 5,6 C 81 % 0 lf 1016,9 hPa 0,0 l/m 0 min 0 min 0 W/m 20,9 km/h (4 Bft) 97,87 %
16.04.2017 02:14 6,8 C 7,2 C 5,6 C 81 % 0 lf 1016,9 hPa 0,0 l/m 0 min 0 min 0 W/m 16,7 km/h (3 Bft) 100,00 %
16.04.2017 02:16 6,8 C 7,2 C 5,6 C 81 % 0 lf 1016,8 hPa 0,0 l/m 0 min 0 min 0 W/m 16,7 km/h (3 Bft) 97,83 %
16.04.2017 02:18 6,8 C 7,2 C 5,6 C 81 % 0 lf 1016,9 hPa 0,0 l/m 0 min 0 min 0 W/m 23,0 km/h (4 Bft) 100,00 %
16.04.2017 02:20 6,8 C 7,2 C 5,6 C 81 % 0 lf 1016,9 hPa 0,0 l/m 0 min 0 min 0 W/m 18,8 km/h (3 Bft) 100,00 %
16.04.2017 02:22 6,8 C 7,2 C 5,6 C 81 % 0 lf 1016,9 hPa 0,0 l/m 0 min 0 min 0 W/m 16,7 km/h (3 Bft) 97,87 %
16.04.2017 02:24 6,8 C 6,7 C 5,6 C 81 % 0 lf 1016,9 hPa 0,0 l/m 0 min 0 min 0 W/m 18,8 km/h (3 Bft) 100,00 %
16.04.2017 02:26 6,8 C 7,2 C 5,6 C 80 % 0 lf 1016,9 hPa 0,0 l/m 0 min 0 min 0 W/m 18,8 km/h (3 Bft) 97,87 %
16.04.2017 02:28 6,8 C 7,2 C 5,6 C 80 % 0 lf 1016,9 hPa 0,0 l/m 0 min 0 min 0 W/m 16,7 km/h (3 Bft) 100,00 %
16.04.2017 02:30 6,8 C 7,2 C 5,6 C 80 % 0 lf 1016,9 hPa 0,0 l/m 0 min 0 min 0 W/m 18,8 km/h (3 Bft) 100,00 %
16.04.2017 02:32 6,8 C 7,2 C 5,6 C 80 % 0 lf 1016,9 hPa 0,0 l/m 0 min 0 min 0 W/m 16,7 km/h (3 Bft) 100,00 %
16.04.2017 02:34 6,8 C 7,2 C 5,6 C 80 % 0 lf 1016,9 hPa 0,0 l/m 0 min 0 min 0 W/m 16,7 km/h (3 Bft) 97,87 %
16.04.2017 02:36 6,8 C 7,2 C 5,6 C 80 % 0 lf 1016,9 hPa 0,0 l/m 0 min 0 min 0 W/m 16,7 km/h (3 Bft) 100,00 %
16.04.2017 02:38 6,8 C 7,2 C 5,6 C 80 % 0 lf 1016,9 hPa 0,0 l/m 0 min 0 min 0 W/m 14,6 km/h (3 Bft) 97,87 %
16.04.2017 02:40 6,8 C 7,2 C 5,6 C 80 % 0 lf 1016,9 hPa 0,0 l/m 0 min 0 min 0 W/m 16,7 km/h (3 Bft) 100,00 %
16.04.2017 02:42 6,8 C 7,2 C 5,6 C 80 % 0 lf 1016,9 hPa 0,0 l/m 0 min 0 min 0 W/m 16,7 km/h (3 Bft) 97,87 %
16.04.2017 02:44 6,8 C 7,2 C 5,6 C 80 % 0 lf 1016,9 hPa 0,0 l/m 0 min 0 min 0 W/m 12,6 km/h (3 Bft) 97,87 %
16.04.2017 02:46 6,8 C 7,2 C 5,6 C 80 % 0 lf 1016,9 hPa 0,0 l/m 0 min 0 min 0 W/m 16,7 km/h (3 Bft) 97,87 %
16.04.2017 02:48 6,8 C 7,2 C 5,6 C 80 % 0 lf 1016,9 hPa 0,0 l/m 0 min 0 min 0 W/m 14,6 km/h (3 Bft) 100,00 %
16.04.2017 02:50 6,8 C 7,2 C 5,6 C 80 % 0 lf 1016,9 hPa 0,0 l/m 0 min 0 min 0 W/m 16,7 km/h (3 Bft) 100,00 %
16.04.2017 02:52 6,8 C 7,2 C 5,6 C 80 % 0 lf 1016,9 hPa 0,0 l/m 0 min 0 min 0 W/m 16,7 km/h (3 Bft) 95,65 %
16.04.2017 02:54 6,8 C 6,7 C 5,6 C 80 % 0 lf 1016,9 hPa 0,0 l/m 0 min 0 min 0 W/m 20,9 km/h (4 Bft) 100,00 %
16.04.2017 02:56 6,8 C 6,7 C 5,6 C 80 % 0 lf 1017,0 hPa 0,0 l/m 0 min 0 min 0 W/m 12,6 km/h (3 Bft) 97,87 %
16.04.2017 02:58 6,8 C 7,2 C 5,6 C 80 % 0 lf 1017,0 hPa 0,0 l/m 0 min 0 min 0 W/m 18,8 km/h (3 Bft) 100,00 %
16.04.2017 03:00 6,8 C 7,2 C 5,6 C 80 % 0 lf 1017,0 hPa 0,0 l/m 0 min 0 min 0 W/m 18,8 km/h (3 Bft) 100,00 %
16.04.2017 03:02 6,8 C 6,7 C 5,6 C 80 % 0 lf 1016,9 hPa 0,0 l/m 0 min 0 min 0 W/m 14,6 km/h (3 Bft) 100,00 %
16.04.2017 03:04 6,8 C 6,7 C 5,6 C 80 % 0 lf 1017,0 hPa 0,0 l/m 0 min 0 min 0 W/m 16,7 km/h (3 Bft) 100,00 %
16.04.2017 03:06 6,8 C 6,7 C 5,6 C 80 % 0 lf 1017,0 hPa 0,0 l/m 0 min 0 min 0 W/m 14,6 km/h (3 Bft) 100,00 %
16.04.2017 03:08 6,8 C 6,7 C 5,6 C 80 % 0 lf 1017,0 hPa 0,0 l/m 0 min 0 min 0 W/m 10,5 km/h (2 Bft) 97,87 %
16.04.2017 03:10 6,8 C 6,7 C 5,6 C 80 % 0 lf 1017,0 hPa 0,0 l/m 0 min 0 min 0 W/m 10,5 km/h (2 Bft) 100,00 %
16.04.2017 03:12 6,8 C 6,7 C 5,0 C 80 % 0 lf 1017,0 hPa 0,0 l/m 0 min 0 min 0 W/m 10,5 km/h (2 Bft) 97,87 %
16.04.2017 03:14 6,8 C 6,7 C 5,0 C 80 % 0 lf 1017,0 hPa 0,0 l/m 0 min 0 min 0 W/m 8,4 km/h (2 Bft) 97,87 %
16.04.2017 03:16 6,8 C 6,7 C 5,0 C 80 % 0 lf 1017,0 hPa 0,0 l/m 0 min 0 min 0 W/m 10,5 km/h (2 Bft) 97,83 %
16.04.2017 03:18 6,8 C 6,7 C 5,0 C 80 % 0 lf 1017,0 hPa 0,0 l/m 0 min 0 min 0 W/m 14,6 km/h (3 Bft) 100,00 %
16.04.2017 03:20 6,8 C 6,7 C 5,0 C 80 % 0 lf 1017,0 hPa 0,0 l/m 0 min 0 min 0 W/m 12,6 km/h (3 Bft) 100,00 %
16.04.2017 03:22 6,8 C 6,7 C 5,0 C 80 % 0 lf 1017,0 hPa 0,0 l/m 0 min 0 min 0 W/m 12,6 km/h (3 Bft) 97,87 %
16.04.2017 03:24 6,8 C 6,7 C 5,0 C 80 % 0 lf 1017,0 hPa 0,0 l/m 0 min 0 min 0 W/m 10,5 km/h (2 Bft) 95,74 %
16.04.2017 03:26 6,8 C 6,7 C 5,0 C 80 % 0 lf 1017,0 hPa 0,0 l/m 0 min 0 min 0 W/m 10,5 km/h (2 Bft) 97,83 %
16.04.2017 03:28 6,8 C 6,7 C 5,0 C 80 % 0 lf 1017,0 hPa 0,0 l/m 0 min 0 min 0 W/m 12,6 km/h (3 Bft) 97,87 %
16.04.2017 03:30 6,7 C 6,7 C 5,0 C 80 % 0 lf 1016,9 hPa 0,0 l/m 0 min 0 min 0 W/m 8,4 km/h (2 Bft) 95,74 %
16.04.2017 03:32 6,8 C 6,7 C 5,0 C 80 % 0 lf 1017,0 hPa 0,0 l/m 0 min 0 min 0 W/m 10,5 km/h (2 Bft) 95,74 %
16.04.2017 03:34 6,8 C 6,7 C 5,0 C 80 % 0 lf 1017,1 hPa 0,0 l/m 0 min 0 min 0 W/m 6,3 km/h (2 Bft) 95,74 %
16.04.2017 03:36 6,8 C 6,7 C 5,0 C 80 % 0 lf 1017,0 hPa 0,0 l/m 0 min 0 min 0 W/m 12,6 km/h (3 Bft) 95,74 %
16.04.2017 03:38 6,7 C 6,7 C 5,0 C 80 % 0 lf 1017,0 hPa 0,0 l/m 0 min 0 min 0 W/m 16,7 km/h (3 Bft) 97,83 %
16.04.2017 03:40 6,7 C 6,7 C 5,0 C 80 % 0 lf 1017,0 hPa 0,0 l/m 0 min 0 min 0 W/m 12,6 km/h (3 Bft) 93,62 %
16.04.2017 03:42 6,7 C 6,7 C 5,0 C 80 % 0 lf 1017,0 hPa 0,0 l/m 0 min 0 min 0 W/m 10,5 km/h (2 Bft) 95,74 %
16.04.2017 03:44 6,7 C 6,7 C 5,0 C 80 % 0 lf 1017,1 hPa 0,0 l/m 0 min 0 min 0 W/m 10,5 km/h (2 Bft) 93,62 %
16.04.2017 03:46 6,7 C 6,7 C 5,0 C 81 % 0 lf 1017,1 hPa 0,0 l/m 0 min 0 min 0 W/m 14,6 km/h (3 Bft) 93,62 %
16.04.2017 03:48 6,7 C 6,7 C 4,4 C 81 % 0 lf 1017,1 hPa 0,0 l/m 0 min 0 min 0 W/m 10,5 km/h (2 Bft) 95,74 %
16.04.2017 03:50 6,7 C 6,1 C 4,4 C 81 % 0 lf 1017,1 hPa 0,0 l/m 0 min 0 min 0 W/m 12,6 km/h (3 Bft) 91,30 %
16.04.2017 03:52 6,7 C 6,1 C 4,4 C 81 % 0 lf 1017,1 hPa 0,0 l/m 0 min 0 min 0 W/m 8,4 km/h (2 Bft) 95,74 %
16.04.2017 03:54 6,7 C 6,1 C 4,4 C 81 % 0 lf 1017,1 hPa 0,0 l/m 0 min 0 min 0 W/m 10,5 km/h (2 Bft) 97,87 %
16.04.2017 03:56 6,7 C 6,1 C 4,4 C 80 % 0 lf 1017,1 hPa 0,0 l/m 0 min 0 min 0 W/m 10,5 km/h (2 Bft) 95,74 %
16.04.2017 03:58 6,6 C 6,1 C 3,9 C 80 % 0 lf 1017,0 hPa 0,0 l/m 0 min 0 min 0 W/m 8,4 km/h (2 Bft) 93,62 %
16.04.2017 04:00 6,6 C 6,1 C 3,9 C 80 % 0 lf 1017,0 hPa 0,0 l/m 0 min 0 min 0 W/m 10,5 km/h (2 Bft) 95,74 %
16.04.2017 04:02 6,6 C 5,6 C 3,9 C 80 % 0 lf 1017,0 hPa 0,0 l/m 0 min 0 min 0 W/m 8,4 km/h (2 Bft) 96,00 %
16.04.2017 04:04 6,6 C 5,6 C 3,9 C 80 % 0 lf 1017,0 hPa 0,0 l/m 0 min 0 min 0 W/m 10,5 km/h (2 Bft) 95,74 %
16.04.2017 04:06 6,5 C 5,6 C 3,3 C 80 % 0 lf 1017,0 hPa 0,0 l/m 0 min 0 min 0 W/m 6,3 km/h (2 Bft) 91,49 %
16.04.2017 04:08 6,5 C 5,6 C 3,3 C 80 % 0 lf 1017,0 hPa 0,0 l/m 0 min 0 min 0 W/m 8,4 km/h (2 Bft) 93,62 %
16.04.2017 04:10 6,4 C 5,6 C 3,3 C 80 % 0 lf 1017,0 hPa 0,0 l/m 0 min 0 min 0 W/m 8,4 km/h (2 Bft) 91,49 %
16.04.2017 04:12 6,4 C 5,6 C 3,3 C 80 % 0 lf 1017,0 hPa 0,0 l/m 0 min 0 min 0 W/m 4,2 km/h (1 Bft) 93,62 %
16.04.2017 04:14 6,4 C 5,0 C 3,3 C 80 % 0 lf 1016,9 hPa 0,0 l/m 0 min 0 min 0 W/m 6,3 km/h (2 Bft) 91,30 %
16.04.2017 04:16 6,4 C 5,0 C 3,3 C 80 % 0 lf 1016,9 hPa 0,0 l/m 0 min 0 min 0 W/m 6,3 km/h (2 Bft) 87,23 %
16.04.2017 04:18 6,4 C 5,0 C 3,3 C 80 % 0 lf 1017,0 hPa 0,0 l/m 0 min 0 min 0 W/m 4,2 km/h (1 Bft) 95,74 %
16.04.2017 04:20 6,4 C 5,0 C 2,8 C 80 % 0 lf 1016,9 hPa 0,0 l/m 0 min 0 min 0 W/m 6,3 km/h (2 Bft) 93,62 %
16.04.2017 04:22 6,3 C 5,0 C 2,8 C 80 % 0 lf 1016,9 hPa 0,0 l/m 0 min 0 min 0 W/m 6,3 km/h (2 Bft) 87,23 %
16.04.2017 04:24 6,3 C 5,0 C 2,8 C 80 % 0 lf 1017,0 hPa 0,0 l/m 0 min 0 min 0 W/m 8,4 km/h (2 Bft) 93,62 %
16.04.2017 04:26 6,3 C 5,0 C 2,8 C 80 % 0 lf 1016,9 hPa 0,0 l/m 0 min 0 min 0 W/m 8,4 km/h (2 Bft) 95,65 %
16.04.2017 04:28 6,2 C 5,0 C 2,8 C 80 % 0 lf 1017,0 hPa 0,0 l/m 0 min 0 min 0 W/m 6,3 km/h (2 Bft) 95,74 %
16.04.2017 04:30 6,2 C 5,0 C 3,3 C 80 % 0 lf 1017,0 hPa 0,0 l/m 0 min 0 min 0 W/m 6,3 km/h (2 Bft) 91,49 %
16.04.2017 04:32 6,2 C 5,0 C 3,3 C 81 % 0 lf 1017,0 hPa 0,0 l/m 0 min 0 min 0 W/m 8,4 km/h (2 Bft) 93,62 %
16.04.2017 04:34 6,1 C 5,0 C 3,3 C 81 % 0 lf 1017,0 hPa 0,0 l/m 0 min 0 min 0 W/m 8,4 km/h (2 Bft) 95,74 %
16.04.2017 04:36 6,1 C 5,0 C 3,3 C 81 % 0 lf 1017,0 hPa 0,0 l/m 0 min 0 min 0 W/m 10,5 km/h (2 Bft) 95,65 %
16.04.2017 04:38 6,1 C 5,0 C 3,3 C 81 % 0 lf 1017,0 hPa 0,0 l/m 0 min 0 min 0 W/m 6,3 km/h (2 Bft) 93,62 %
16.04.2017 04:40 6,0 C 5,0 C 3,3 C 81 % 0 lf 1017,0 hPa 0,0 l/m 0 min 0 min 0 W/m 6,3 km/h (2 Bft) 97,87 %
16.04.2017 04:42 5,9 C 5,0 C 3,3 C 81 % 0 lf 1017,0 hPa 0,0 l/m 0 min 0 min 0 W/m 6,3 km/h (2 Bft) 93,62 %
16.04.2017 04:44 5,9 C 5,0 C 2,8 C 81 % 0 lf 1017,1 hPa 0,0 l/m 0 min 0 min 0 W/m 6,3 km/h (2 Bft) 95,74 %
16.04.2017 04:46 5,9 C 5,0 C 2,8 C 81 % 0 lf 1017,1 hPa 0,0 l/m 0 min 0 min 0 W/m 6,3 km/h (2 Bft) 95,74 %
16.04.2017 04:48 5,8 C 5,0 C 2,8 C 81 % 0 lf 1017,1 hPa 0,0 l/m 0 min 0 min 0 W/m 8,4 km/h (2 Bft) 93,62 %
16.04.2017 04:50 5,8 C 5,0 C 2,8 C 81 % 0 lf 1017,1 hPa 0,0 l/m 0 min 0 min 0 W/m 6,3 km/h (2 Bft) 93,48 %
16.04.2017 04:52 5,8 C 5,0 C 3,3 C 81 % 0 lf 1017,1 hPa 0,0 l/m 0 min 0 min 0 W/m 6,3 km/h (2 Bft) 95,74 %
16.04.2017 04:54 5,7 C 5,0 C 3,3 C 81 % 0 lf 1017,0 hPa 0,0 l/m 0 min 0 min 0 W/m 6,3 km/h (2 Bft) 95,74 %
16.04.2017 04:56 5,7 C 5,0 C 3,3 C 82 % 0 lf 1017,1 hPa 0,0 l/m 0 min 0 min 0 W/m 8,4 km/h (2 Bft) 95,74 %
16.04.2017 04:58 5,7 C 5,6 C 3,3 C 82 % 0 lf 1017,1 hPa 0,0 l/m 0 min 0 min 0 W/m 10,5 km/h (2 Bft) 97,87 %
16.04.2017 05:00 5,7 C 5,6 C 3,3 C 82 % 0 lf 1017,0 hPa 0,0 l/m 0 min 0 min 0 W/m 12,6 km/h (3 Bft) 95,65 %
16.04.2017 05:02 5,6 C 5,6 C 3,3 C 82 % 0 lf 1017,1 hPa 0,0 l/m 0 min 0 min 0 W/m 8,4 km/h (2 Bft) 97,87 %
16.04.2017 05:04 5,6 C 5,6 C 3,3 C 82 % 0 lf 1017,0 hPa 0,0 l/m 0 min 0 min 0 W/m 12,6 km/h (3 Bft) 93,62 %
16.04.2017 05:06 5,6 C 5,6 C 3,3 C 83 % 0 lf 1017,0 hPa 0,0 l/m 0 min 0 min 0 W/m 8,4 km/h (2 Bft) 95,74 %
16.04.2017 05:08 5,6 C 5,0 C 3,3 C 83 % 0 lf 1017,0 hPa 0,0 l/m 0 min 0 min 0 W/m 6,3 km/h (2 Bft) 95,74 %
16.04.2017 05:10 5,6 C 5,6 C 3,3 C 83 % 0 lf 1017,0 hPa 0,0 l/m 0 min 0 min 0 W/m 8,4 km/h (2 Bft) 95,74 %
16.04.2017 05:12 5,5 C 5,6 C 3,3 C 83 % 0 lf 1017,0 hPa 0,0 l/m 0 min 0 min 0 W/m 12,6 km/h (3 Bft) 95,65 %
16.04.2017 05:14 5,5 C 5,6 C 3,9 C 83 % 0 lf 1017,1 hPa 0,0 l/m 0 min 0 min 0 W/m 12,6 km/h (3 Bft) 93,62 %
16.04.2017 05:16 5,5 C 5,6 C 3,9 C 84 % 0 lf 1017,1 hPa 0,0 l/m 0 min 0 min 0 W/m 12,6 km/h (3 Bft) 93,62 %
16.04.2017 05:18 5,5 C 5,6 C 3,9 C 84 % 0 lf 1017,1 hPa 0,0 l/m 0 min 0 min 0 W/m 10,5 km/h (2 Bft) 97,87 %
16.04.2017 05:20 5,4 C 5,6 C 3,9 C 84 % 0 lf 1017,1 hPa 0,0 l/m 0 min 0 min 0 W/m 12,6 km/h (3 Bft) 97,87 %
16.04.2017 05:22 5,4 C 5,6 C 3,9 C 84 % 0 lf 1017,1 hPa 0,0 l/m 0 min 0 min 0 W/m 10,5 km/h (2 Bft) 97,87 %
16.04.2017 05:24 5,4 C 5,6 C 3,9 C 84 % 0 lf 1017,1 hPa 0,0 l/m 0 min 0 min 0 W/m 12,6 km/h (3 Bft) 93,48 %
16.04.2017 05:26 5,4 C 5,6 C 3,9 C 84 % 0 lf 1017,1 hPa 0,0 l/m 0 min 0 min 0 W/m 10,5 km/h (2 Bft) 97,87 %
16.04.2017 05:28 5,4 C 5,0 C 3,9 C 84 % 0 lf 1017,1 hPa 0,0 l/m 0 min 0 min 0 W/m 10,5 km/h (2 Bft) 97,87 %
16.04.2017 05:30 5,4 C 5,0 C 3,3 C 84 % 0 lf 1017,1 hPa 0,0 l/m 0 min 0 min 0 W/m 12,6 km/h (3 Bft) 97,87 %
16.04.2017 05:32 5,4 C 5,0 C 3,3 C 84 % 0 lf 1017,1 hPa 0,0 l/m 0 min 0 min 0 W/m 12,6 km/h (3 Bft) 97,87 %
16.04.2017 05:34 5,4 C 5,0 C 3,3 C 84 % 0 lf 1017,1 hPa 0,0 l/m 0 min 0 min 0 W/m 10,5 km/h (2 Bft) 91,30 %
16.04.2017 05:36 5,4 C 5,0 C 3,3 C 84 % 0 lf 1017,1 hPa 0,0 l/m 0 min 0 min 0 W/m 12,6 km/h (3 Bft) 93,62 %
16.04.2017 05:38 5,4 C 5,0 C 3,3 C 85 % 0 lf 1017,2 hPa 0,0 l/m 0 min 0 min 0 W/m 10,5 km/h (2 Bft) 95,74 %
16.04.2017 05:40 5,4 C 5,0 C 3,3 C 85 % 0 lf 1017,2 hPa 0,0 l/m 0 min 0 min 0 W/m 12,6 km/h (3 Bft) 97,87 %
16.04.2017 05:42 5,3 C 5,0 C 3,3 C 85 % 0 lf 1017,1 hPa 0,0 l/m 0 min 0 min 0 W/m 12,6 km/h (3 Bft) 100,00 %
16.04.2017 05:44 5,3 C 5,0 C 3,3 C 85 % 0 lf 1017,1 hPa 0,0 l/m 0 min 0 min 0 W/m 14,6 km/h (3 Bft) 97,87 %
16.04.2017 05:46 5,3 C 5,0 C 3,3 C 85 % 0 lf 1017,1 hPa 0,0 l/m 0 min 0 min 0 W/m 14,6 km/h (3 Bft) 100,00 %
16.04.2017 05:48 5,3 C 5,0 C 3,3 C 85 % 0 lf 1017,1 hPa 0,0 l/m 0 min 0 min 0 W/m 10,5 km/h (2 Bft) 97,87 %
16.04.2017 05:50 5,3 C 5,0 C 3,3 C 85 % 0 lf 1017,1 hPa 0,0 l/m 0 min 0 min 0 W/m 12,6 km/h (3 Bft) 100,00 %
16.04.2017 05:52 5,3 C 5,0 C 3,3 C 85 % 0 lf 1017,1 hPa 0,0 l/m 0 min 0 min 0 W/m 12,6 km/h (3 Bft) 100,00 %
16.04.2017 05:54 5,3 C 5,0 C 3,3 C 85 % 0 lf 1017,1 hPa 0,0 l/m 0 min 0 min 0 W/m 8,4 km/h (2 Bft) 100,00 %
16.04.2017 05:56 5,3 C 5,0 C 3,3 C 85 % 0 lf 1017,1 hPa 0,0 l/m 0 min 0 min 0 W/m 10,5 km/h (2 Bft) 100,00 %
16.04.2017 05:58 5,2 C 5,0 C 3,3 C 85 % 0 lf 1017,2 hPa 0,0 l/m 0 min 0 min 0 W/m 10,5 km/h (2 Bft) 97,83 %
16.04.2017 06:00 5,2 C 5,0 C 3,3 C 85 % 0 lf 1017,2 hPa 0,0 l/m 0 min 0 min 0 W/m 10,5 km/h (2 Bft) 100,00 %
16.04.2017 06:02 5,2 C 5,0 C 3,3 C 85 % 0 lf 1017,2 hPa 0,0 l/m 0 min 0 min 0 W/m 12,6 km/h (3 Bft) 100,00 %
16.04.2017 06:04 5,2 C 5,0 C 3,3 C 85 % 0 lf 1017,2 hPa 0,0 l/m 0 min 0 min 0 W/m 16,7 km/h (3 Bft) 100,00 %
16.04.2017 06:06 5,2 C 5,0 C 3,3 C 85 % 0 lf 1017,2 hPa 0,0 l/m 0 min 0 min 0 W/m 14,6 km/h (3 Bft) 93,62 %
16.04.2017 06:08 5,2 C 5,0 C 3,3 C 86 % 0 lf 1017,2 hPa 0,0 l/m 0 min 0 min 0 W/m 12,6 km/h (3 Bft) 97,92 %
16.04.2017 06:10 5,2 C 5,0 C 3,3 C 86 % 0 lf 1017,2 hPa 0,0 l/m 0 min 0 min 0 W/m 14,6 km/h (3 Bft) 100,00 %
16.04.2017 06:12 5,2 C 5,0 C 3,3 C 86 % 0 lf 1017,2 hPa 0,0 l/m 0 min 0 min 0 W/m 12,6 km/h (3 Bft) 97,87 %
16.04.2017 06:14 5,2 C 5,0 C 3,3 C 86 % 0 lf 1017,2 hPa 0,0 l/m 0 min 0 min 0 W/m 12,6 km/h (3 Bft) 100,00 %
16.04.2017 06:16 5,2 C 5,0 C 3,3 C 86 % 0 lf 1017,3 hPa 0,0 l/m 0 min 0 min 0 W/m 10,5 km/h (2 Bft) 95,74 %
16.04.2017 06:18 5,1 C 5,0 C 3,3 C 86 % 0 lf 1017,3 hPa 0,0 l/m 0 min 0 min 0 W/m 10,5 km/h (2 Bft) 95,74 %
16.04.2017 06:20 5,1 C 5,0 C 3,3 C 86 % 0 lf 1017,4 hPa 0,0 l/m 0 min 0 min 0 W/m 10,5 km/h (2 Bft) 95,65 %
16.04.2017 06:22 5,1 C 5,0 C 3,3 C 86 % 0 lf 1017,3 hPa 0,0 l/m 0 min 0 min 0 W/m 14,6 km/h (3 Bft) 95,74 %
16.04.2017 06:24 5,1 C 5,0 C 3,3 C 86 % 0 lf 1017,4 hPa 0,0 l/m 0 min 0 min 0 W/m 12,6 km/h (3 Bft) 97,87 %
16.04.2017 06:26 5,1 C 5,0 C 3,3 C 86 % 0 lf 1017,4 hPa 0,0 l/m 0 min 0 min 0 W/m 12,6 km/h (3 Bft) 91,49 %
16.04.2017 06:28 5,1 C 5,0 C 3,3 C 86 % 0 lf 1017,4 hPa 0,0 l/m 0 min 0 min 5 W/m 12,6 km/h (3 Bft) 97,87 %
16.04.2017 06:30 5,1 C 5,0 C 3,3 C 86 % 0 lf 1017,4 hPa 0,0 l/m 0 min 0 min 5 W/m 10,5 km/h (2 Bft) 95,74 %
16.04.2017 06:32 5,1 C 5,0 C 3,3 C 86 % 0 lf 1017,4 hPa 0,0 l/m 0 min 0 min 6 W/m 12,6 km/h (3 Bft) 97,83 %
16.04.2017 06:34 5,1 C 5,0 C 3,3 C 87 % 0 lf 1017,4 hPa 0,0 l/m 0 min 0 min 7 W/m 8,4 km/h (2 Bft) 97,87 %
16.04.2017 06:36 5,1 C 5,0 C 3,3 C 87 % 0 lf 1017,5 hPa 0,0 l/m 0 min 0 min 9 W/m 12,6 km/h (3 Bft) 97,87 %
16.04.2017 06:38 5,1 C 5,0 C 3,3 C 87 % 0 lf 1017,5 hPa 0,0 l/m 0 min 0 min 9 W/m 10,5 km/h (2 Bft) 97,87 %
16.04.2017 06:40 5,1 C 5,0 C 3,3 C 87 % 0 lf 1017,4 hPa 0,0 l/m 0 min 0 min 9 W/m 6,3 km/h (2 Bft) 95,74 %
16.04.2017 06:42 5,1 C 5,0 C 3,3 C 87 % 0 lf 1017,5 hPa 0,0 l/m 0 min 0 min 9 W/m 8,4 km/h (2 Bft) 97,87 %
16.04.2017 06:44 5,1 C 5,0 C 3,3 C 87 % 0 lf 1017,5 hPa 0,0 l/m 0 min 0 min 9 W/m 8,4 km/h (2 Bft) 97,83 %
16.04.2017 06:46 5,1 C 5,0 C 3,3 C 87 % 0 lf 1017,5 hPa 0,0 l/m 0 min 0 min 10 W/m 6,3 km/h (2 Bft) 95,74 %
16.04.2017 06:48 5,1 C 5,0 C 3,3 C 87 % 0 lf 1017,5 hPa 0,0 l/m 0 min 0 min 11 W/m 6,3 km/h (2 Bft) 95,74 %
16.04.2017 06:50 5,1 C 5,0 C 3,3 C 87 % 0 lf 1017,5 hPa 0,0 l/m 0 min 0 min 13 W/m 8,4 km/h (2 Bft) 93,62 %
16.04.2017 06:52 5,1 C 5,0 C 3,3 C 87 % 0 lf 1017,5 hPa 0,0 l/m 0 min 0 min 15 W/m 6,3 km/h (2 Bft) 97,87 %
16.04.2017 06:54 5,1 C 5,0 C 3,3 C 87 % 0 lf 1017,5 hPa 0,0 l/m 0 min 0 min 18 W/m 4,2 km/h (1 Bft) 97,87 %
16.04.2017 06:56 5,1 C 5,0 C 3,3 C 87 % 0 lf 1017,5 hPa 0,0 l/m 0 min 0 min 19 W/m 10,5 km/h (2 Bft) 97,83 %
16.04.2017 06:58 5,1 C 5,0 C 3,3 C 87 % 0 lf 1017,5 hPa 0,0 l/m 2 min 0 min 21 W/m 10,5 km/h (2 Bft) 93,62 %
16.04.2017 07:00 5,1 C 5,0 C 3,3 C 87 % 0 lf 1017,6 hPa 0,0 l/m 0 min 0 min 22 W/m 12,6 km/h (3 Bft) 93,62 %
16.04.2017 07:02 5,1 C 5,0 C 3,3 C 87 % 0 lf 1017,6 hPa 0,0 l/m 0 min 0 min 24 W/m 10,5 km/h (2 Bft) 97,87 %
16.04.2017 07:04 5,1 C 5,0 C 3,9 C 87 % 0 lf 1017,6 hPa 0,0 l/m 0 min 0 min 26 W/m 10,5 km/h (2 Bft) 95,74 %
16.04.2017 07:06 5,1 C 5,0 C 3,9 C 87 % 0 lf 1017,6 hPa 0,0 l/m 0 min 0 min 28 W/m 10,5 km/h (2 Bft) 97,87 %
16.04.2017 07:08 5,1 C 5,6 C 3,9 C 87 % 0 lf 1017,6 hPa 0,0 l/m 0 min 0 min 31 W/m 14,6 km/h (3 Bft) 95,65 %
16.04.2017 07:10 5,1 C 5,6 C 3,9 C 88 % 0 lf 1017,6 hPa 0,0 l/m 0 min 0 min 33 W/m 12,6 km/h (3 Bft) 95,74 %
16.04.2017 07:12 5,1 C 5,6 C 3,9 C 88 % 0 lf 1017,6 hPa 0,0 l/m 0 min 0 min 35 W/m 14,6 km/h (3 Bft) 95,74 %
16.04.2017 07:14 5,1 C 5,6 C 3,9 C 88 % 0 lf 1017,6 hPa 0,0 l/m 0 min 0 min 35 W/m 14,6 km/h (3 Bft) 97,87 %
16.04.2017 07:16 5,1 C 5,6 C 3,9 C 88 % 0 lf 1017,6 hPa 0,0 l/m 0 min 0 min 37 W/m 12,6 km/h (3 Bft) 95,74 %
16.04.2017 07:18 5,1 C 5,6 C 3,9 C 88 % 0 lf 1017,6 hPa 0,0 l/m 0 min 0 min 38 W/m 12,6 km/h (3 Bft) 91,49 %
16.04.2017 07:20 5,1 C 5,6 C 3,9 C 88 % 0 lf 1017,6 hPa 0,0 l/m 0 min 0 min 40 W/m 10,5 km/h (2 Bft) 93,48 %
16.04.2017 07:22 5,1 C 5,6 C 3,9 C 88 % 0 lf 1017,6 hPa 0,0 l/m 0 min 0 min 41 W/m 10,5 km/h (2 Bft) 93,62 %
16.04.2017 07:24 5,1 C 5,6 C 3,9 C 88 % 0 lf 1017,6 hPa 0,0 l/m 0 min 0 min 44 W/m 12,6 km/h (3 Bft) 93,62 %
16.04.2017 07:26 5,1 C 5,6 C 3,9 C 88 % 0 lf 1017,6 hPa 0,0 l/m 0 min 0 min 47 W/m 8,4 km/h (2 Bft) 93,62 %
16.04.2017 07:28 5,1 C 5,6 C 3,9 C 88 % 0 lf 1017,6 hPa 0,0 l/m 0 min 0 min 50 W/m 8,4 km/h (2 Bft) 95,74 %
16.04.2017 07:30 5,1 C 5,6 C 3,9 C 88 % 0 lf 1017,7 hPa 0,0 l/m 0 min 0 min 53 W/m 12,6 km/h (3 Bft) 97,83 %
16.04.2017 07:32 5,2 C 5,6 C 3,9 C 88 % 0 lf 1017,7 hPa 0,0 l/m 0 min 0 min 58 W/m 8,4 km/h (2 Bft) 97,87 %
16.04.2017 07:34 5,2 C 5,6 C 4,4 C 88 % 0 lf 1017,7 hPa 0,0 l/m 0 min 0 min 61 W/m 14,6 km/h (3 Bft) 95,74 %
16.04.2017 07:36 5,2 C 6,1 C 4,4 C 88 % 0 lf 1017,7 hPa 0,0 l/m 0 min 0 min 62 W/m 12,6 km/h (3 Bft) 95,74 %
16.04.2017 07:38 5,2 C 6,1 C 4,4 C 88 % 0 lf 1017,7 hPa 0,0 l/m 0 min 0 min 63 W/m 14,6 km/h (3 Bft) 97,87 %
16.04.2017 07:40 5,2 C 6,1 C 4,4 C 88 % 0 lf 1017,7 hPa 0,0 l/m 0 min 0 min 65 W/m 16,7 km/h (3 Bft) 95,74 %
16.04.2017 07:42 5,2 C 6,1 C 4,4 C 88 % 0 lf 1017,8 hPa 0,0 l/m 0 min 0 min 67 W/m 10,5 km/h (2 Bft) 93,48 %
16.04.2017 07:44 5,2 C 6,1 C 4,4 C 88 % 0 lf 1017,8 hPa 0,0 l/m 0 min 0 min 72 W/m 8,4 km/h (2 Bft) 95,74 %
16.04.2017 07:46 5,3 C 6,1 C 4,4 C 88 % 0 lf 1017,8 hPa 0,0 l/m 0 min 0 min 77 W/m 8,4 km/h (2 Bft) 97,87 %
16.04.2017 07:48 5,3 C 6,1 C 4,4 C 88 % 0 lf 1017,8 hPa 0,0 l/m 0 min 0 min 84 W/m 10,5 km/h (2 Bft) 95,74 %
16.04.2017 07:50 5,3 C 6,1 C 4,4 C 88 % 0 lf 1017,8 hPa 0,0 l/m 2 min 0 min 90 W/m 12,6 km/h (3 Bft) 95,74 %
16.04.2017 07:52 5,3 C 6,7 C 5,0 C 89 % 0 lf 1017,8 hPa 0,0 l/m 2 min 0 min 95 W/m 10,5 km/h (2 Bft) 95,74 %
16.04.2017 07:54 5,4 C 6,7 C 5,0 C 89 % 0 lf 1017,9 hPa 0,0 l/m 2 min 0 min 97 W/m 10,5 km/h (2 Bft) 95,65 %
16.04.2017 07:56 5,4 C 6,7 C 5,0 C 88 % 0 lf 1017,8 hPa 0,0 l/m 2 min 0 min 101 W/m 10,5 km/h (2 Bft) 95,74 %
16.04.2017 07:58 5,4 C 6,7 C 5,0 C 89 % 0 lf 1017,9 hPa 0,0 l/m 2 min 0 min 109 W/m 12,6 km/h (3 Bft) 97,87 %
16.04.2017 08:00 5,5 C 7,2 C 5,0 C 89 % 0 lf 1017,9 hPa 0,0 l/m 2 min 0 min 116 W/m 12,6 km/h (3 Bft) 93,62 %
16.04.2017 08:02 5,5 C 7,2 C 5,6 C 89 % 0 lf 1017,9 hPa 0,0 l/m 2 min 0 min 127 W/m 14,6 km/h (3 Bft) 97,87 %
16.04.2017 08:04 5,6 C 7,2 C 5,6 C 89 % 0 lf 1017,9 hPa 0,0 l/m 2 min 0 min 130 W/m 14,6 km/h (3 Bft) 100,00 %
16.04.2017 08:06 5,6 C 7,2 C 5,6 C 89 % 0 lf 1018,0 hPa 0,0 l/m 2 min 0 min 134 W/m 10,5 km/h (2 Bft) 100,00 %
16.04.2017 08:08 5,7 C 7,2 C 5,6 C 89 % 0 lf 1017,9 hPa 0,0 l/m 2 min 0 min 132 W/m 10,5 km/h (2 Bft) 97,87 %
16.04.2017 08:10 5,7 C 7,2 C 6,1 C 89 % 0 lf 1018,0 hPa 0,0 l/m 2 min 0 min 129 W/m 10,5 km/h (2 Bft) 97,87 %
16.04.2017 08:12 5,8 C 7,8 C 6,1 C 89 % 0 lf 1018,0 hPa 0,0 l/m 2 min 0 min 134 W/m 12,6 km/h (3 Bft) 100,00 %
16.04.2017 08:14 5,8 C 7,8 C 6,1 C 89 % 0 lf 1018,0 hPa 0,0 l/m 2 min 0 min 139 W/m 12,6 km/h (3 Bft) 100,00 %
16.04.2017 08:16 5,9 C 7,8 C 6,1 C 89 % 0 lf 1018,0 hPa 0,0 l/m 2 min 0 min 139 W/m 14,6 km/h (3 Bft) 100,00 %
16.04.2017 08:18 5,9 C 7,8 C 6,7 C 89 % 0 lf 1018,0 hPa 0,0 l/m 2 min 0 min 144 W/m 18,8 km/h (3 Bft) 100,00 %
16.04.2017 08:20 6,0 C 7,8 C 6,7 C 89 % 0 lf 1018,0 hPa 0,0 l/m 2 min 0 min 148 W/m 12,6 km/h (3 Bft) 100,00 %
16.04.2017 08:22 6,1 C 7,8 C 6,7 C 89 % 0 lf 1017,9 hPa 0,0 l/m 2 min 0 min 155 W/m 20,9 km/h (4 Bft) 95,74 %
16.04.2017 08:24 6,1 C 7,8 C 6,7 C 88 % 0 lf 1018,0 hPa 0,0 l/m 2 min 0 min 159 W/m 14,6 km/h (3 Bft) 93,62 %
16.04.2017 08:26 6,2 C 7,8 C 6,7 C 88 % 0 lf 1017,9 hPa 0,0 l/m 2 min 0 min 167 W/m 12,6 km/h (3 Bft) 95,74 %
16.04.2017 08:28 6,3 C 7,8 C 6,7 C 88 % 0 lf 1018,0 hPa 0,0 l/m 2 min 0 min 169 W/m 16,7 km/h (3 Bft) 95,65 %
16.04.2017 08:30 6,4 C 8,3 C 6,7 C 88 % 0 lf 1017,9 hPa 0,0 l/m 2 min 0 min 170 W/m 14,6 km/h (3 Bft) 97,87 %
16.04.2017 08:32 6,4 C 8,3 C 6,7 C 88 % 0 lf 1018,0 hPa 0,0 l/m 2 min 0 min 170 W/m 10,5 km/h (2 Bft) 95,74 %
16.04.2017 08:34 6,4 C 8,3 C 6,7 C 88 % 0 lf 1018,0 hPa 0,0 l/m 2 min 0 min 172 W/m 10,5 km/h (2 Bft) 95,74 %
16.04.2017 08:36 6,5 C 8,3 C 7,2 C 88 % 0 lf 1018,0 hPa 0,0 l/m 2 min 0 min 173 W/m 18,8 km/h (3 Bft) 97,87 %
16.04.2017 08:38 6,6 C 8,3 C 7,2 C 88 % 0 lf 1018,1 hPa 0,0 l/m 2 min 0 min 166 W/m 14,6 km/h (3 Bft) 97,87 %
16.04.2017 08:40 6,6 C 8,3 C 7,2 C 87 % 0 lf 1018,1 hPa 0,0 l/m 2 min 0 min 159 W/m 12,6 km/h (3 Bft) 95,65 %
16.04.2017 08:42 6,7 C 8,3 C 7,2 C 87 % 0 lf 1018,1 hPa 0,0 l/m 0 min 0 min 155 W/m 14,6 km/h (3 Bft) 91,49 %
16.04.2017 08:44 6,7 C 8,9 C 7,2 C 87 % 0 lf 1018,2 hPa 0,0 l/m 0 min 0 min 156 W/m 16,7 km/h (3 Bft) 93,62 %
16.04.2017 08:46 6,8 C 8,9 C 7,2 C 87 % 0 lf 1018,1 hPa 0,0 l/m 0 min 0 min 160 W/m 14,6 km/h (3 Bft) 97,87 %
16.04.2017 08:48 6,8 C 8,9 C 7,2 C 87 % 0 lf 1018,1 hPa 0,0 l/m 2 min 0 min 167 W/m 10,5 km/h (2 Bft) 97,87 %
16.04.2017 08:50 6,9 C 9,4 C 7,2 C 87 % 0 lf 1018,2 hPa 0,0 l/m 2 min 0 min 174 W/m 16,7 km/h (3 Bft) 97,87 %
16.04.2017 08:52 6,9 C 9,4 C 7,8 C 87 % 0 lf 1018,2 hPa 0,0 l/m 2 min 0 min 178 W/m 12,6 km/h (3 Bft) 91,30 %
16.04.2017 08:54 7,0 C 9,4 C 7,8 C 87 % 0 lf 1018,2 hPa 0,0 l/m 2 min 0 min 188 W/m 16,7 km/h (3 Bft) 93,62 %
16.04.2017 08:56 7,1 C 9,4 C 7,8 C 86 % 0 lf 1018,2 hPa 0,0 l/m 2 min 0 min 192 W/m 14,6 km/h (3 Bft) 93,62 %
16.04.2017 08:58 7,1 C 9,4 C 7,8 C 86 % 0 lf 1018,2 hPa 0,0 l/m 2 min 0 min 193 W/m 12,6 km/h (3 Bft) 93,62 %
16.04.2017 09:00 7,2 C 10,0 C 7,8 C 86 % 0 lf 1018,2 hPa 0,0 l/m 2 min 0 min 198 W/m 8,4 km/h (2 Bft) 93,62 %
16.04.2017 09:02 7,2 C 10,0 C 8,3 C 86 % 0 lf 1018,2 hPa 0,0 l/m 2 min 0 min 198 W/m 12,6 km/h (3 Bft) 93,62 %
16.04.2017 09:04 7,3 C 10,0 C 8,3 C 86 % 0 lf 1018,2 hPa 0,0 l/m 2 min 0 min 202 W/m 16,7 km/h (3 Bft) 93,48 %
16.04.2017 09:06 7,4 C 10,0 C 8,3 C 86 % 0 lf 1018,2 hPa 0,0 l/m 2 min 0 min 199 W/m 10,5 km/h (2 Bft) 93,75 %
16.04.2017 09:08 7,4 C 10,0 C 8,3 C 86 % 0 lf 1018,2 hPa 0,0 l/m 2 min 0 min 195 W/m 14,6 km/h (3 Bft) 89,36 %
16.04.2017 09:10 7,5 C 10,6 C 8,3 C 86 % 0 lf 1018,2 hPa 0,0 l/m 2 min 0 min 196 W/m 14,6 km/h (3 Bft) 93,62 %
16.04.2017 09:12 7,6 C 10,6 C 8,3 C 85 % 0 lf 1018,2 hPa 0,0 l/m 2 min 0 min 193 W/m 16,7 km/h (3 Bft) 95,74 %
16.04.2017 09:14 7,7 C 10,6 C 8,3 C 85 % 0 lf 1018,2 hPa 0,0 l/m 0 min 0 min 190 W/m 20,9 km/h (4 Bft) 91,49 %
16.04.2017 09:16 7,7 C 10,0 C 8,3 C 85 % 0 lf 1018,2 hPa 0,0 l/m 0 min 0 min 189 W/m 12,6 km/h (3 Bft) 91,30 %
16.04.2017 09:18 7,8 C 10,0 C 8,3 C 85 % 0 lf 1018,2 hPa 0,0 l/m 0 min 0 min 193 W/m 16,7 km/h (3 Bft) 93,62 %
16.04.2017 09:20 7,8 C 10,0 C 8,9 C 85 % 0 lf 1018,2 hPa 0,0 l/m 2 min 0 min 203 W/m 16,7 km/h (3 Bft) 89,36 %
16.04.2017 09:22 7,8 C 10,6 C 8,9 C 85 % 0 lf 1018,2 hPa 0,0 l/m 0 min 0 min 202 W/m 14,6 km/h (3 Bft) 93,62 %
16.04.2017 09:24 7,9 C 10,6 C 8,9 C 85 % 0 lf 1018,2 hPa 0,0 l/m 0 min 0 min 189 W/m 16,7 km/h (3 Bft) 93,62 %
16.04.2017 09:26 8,0 C 10,6 C 8,9 C 85 % 0 lf 1018,2 hPa 0,0 l/m 0 min 0 min 177 W/m 16,7 km/h (3 Bft) 95,74 %
16.04.2017 09:28 8,0 C 10,0 C 8,9 C 85 % 0 lf 1018,2 hPa 0,0 l/m 0 min 0 min 176 W/m 12,6 km/h (3 Bft) 97,83 %
16.04.2017 09:30 8,1 C 10,6 C 8,9 C 84 % 0 lf 1018,2 hPa 0,0 l/m 0 min 0 min 198 W/m 18,8 km/h (3 Bft) 97,87 %
16.04.2017 09:32 8,1 C 11,1 C 8,9 C 84 % 0 lf 1018,2 hPa 0,0 l/m 2 min 0 min 235 W/m 14,6 km/h (3 Bft) 95,74 %
16.04.2017 09:34 8,2 C 11,1 C 9,4 C 84 % 0 lf 1018,2 hPa 0,0 l/m 2 min 0 min 255 W/m 14,6 km/h (3 Bft) 93,62 %
16.04.2017 09:36 8,3 C 11,7 C 9,4 C 84 % 0 lf 1018,2 hPa 0,0 l/m 2 min 0 min 266 W/m 20,9 km/h (4 Bft) 95,74 %
16.04.2017 09:38 8,3 C 12,2 C 9,4 C 84 % 0 lf 1018,2 hPa 0,0 l/m 2 min 0 min 326 W/m 16,7 km/h (3 Bft) 97,83 %
16.04.2017 09:40 8,4 C 13,3 C 10,0 C 84 % 0 lf 1018,2 hPa 0,0 l/m 2 min 0 min 339 W/m 14,6 km/h (3 Bft) 100,00 %
16.04.2017 09:42 8,5 C 13,9 C 10,0 C 84 % 0 lf 1018,2 hPa 0,0 l/m 2 min 0 min 319 W/m 18,8 km/h (3 Bft) 97,87 %
16.04.2017 09:44 8,6 C 14,4 C 10,6 C 84 % 0 lf 1018,2 hPa 0,0 l/m 2 min 0 min 403 W/m 18,8 km/h (3 Bft) 100,00 %
16.04.2017 09:46 8,7 C 15,0 C 11,1 C 84 % 0 lf 1018,2 hPa 0,0 l/m 2 min 0 min 407 W/m 16,7 km/h (3 Bft) 97,87 %
16.04.2017 09:48 8,8 C 16,1 C 11,1 C 84 % 0 lf 1018,2 hPa 0,0 l/m 2 min 0 min 414 W/m 16,7 km/h (3 Bft) 97,87 %
16.04.2017 09:50 8,9 C 14,4 C 11,1 C 84 % 0 lf 1018,3 hPa 0,0 l/m 2 min 0 min 337 W/m 12,6 km/h (3 Bft) 97,83 %
16.04.2017 09:52 9,1 C 14,4 C 11,7 C 83 % 0 lf 1018,3 hPa 0,0 l/m 2 min 0 min 316 W/m 16,7 km/h (3 Bft) 100,00 %
16.04.2017 09:54 9,2 C 14,4 C 11,7 C 83 % 0 lf 1018,3 hPa 0,0 l/m 2 min 0 min 383 W/m 20,9 km/h (4 Bft) 97,87 %
16.04.2017 09:56 9,3 C 13,9 C 11,7 C 82 % 0 lf 1018,3 hPa 0,0 l/m 2 min 0 min 359 W/m 18,8 km/h (3 Bft) 100,00 %
16.04.2017 09:58 9,3 C 13,3 C 11,7 C 82 % 0 lf 1018,2 hPa 0,0 l/m 2 min 0 min 312 W/m 16,7 km/h (3 Bft) 97,87 %
16.04.2017 10:00 9,4 C 12,8 C 11,1 C 82 % 0 lf 1018,2 hPa 0,0 l/m 2 min 0 min 259 W/m 18,8 km/h (3 Bft) 95,74 %
16.04.2017 10:02 9,4 C 12,8 C 11,1 C 81 % 0 lf 1018,2 hPa 0,0 l/m 0 min 0 min 220 W/m 12,6 km/h (3 Bft) 97,83 %
16.04.2017 10:04 9,4 C 12,2 C 10,6 C 81 % 0 lf 1018,2 hPa 0,0 l/m 0 min 0 min 203 W/m 14,6 km/h (3 Bft) 97,87 %
16.04.2017 10:06 9,5 C 12,2 C 10,6 C 81 % 0 lf 1018,2 hPa 0,0 l/m 0 min 0 min 200 W/m 16,7 km/h (3 Bft) 97,87 %
16.04.2017 10:08 9,6 C 12,2 C 10,6 C 81 % 0 lf 1018,3 hPa 0,0 l/m 0 min 0 min 203 W/m 18,8 km/h (3 Bft) 97,87 %
16.04.2017 10:10 9,6 C 11,7 C 10,6 C 81 % 0 lf 1018,2 hPa 0,0 l/m 0 min 0 min 204 W/m 23,0 km/h (4 Bft) 95,74 %
16.04.2017 10:12 9,6 C 11,7 C 10,0 C 80 % 0 lf 1018,2 hPa 0,0 l/m 0 min 0 min 208 W/m 14,6 km/h (3 Bft) 95,74 %
16.04.2017 10:14 9,6 C 11,1 C 10,0 C 80 % 0 lf 1018,2 hPa 0,0 l/m 0 min 0 min 213 W/m 16,7 km/h (3 Bft) 95,65 %
16.04.2017 10:16 9,6 C 11,7 C 10,6 C 80 % 0 lf 1018,3 hPa 0,0 l/m 0 min 0 min 225 W/m 20,9 km/h (4 Bft) 97,87 %
16.04.2017 10:18 9,6 C 11,7 C 10,6 C 80 % 0 lf 1018,3 hPa 0,0 l/m 0 min 0 min 237 W/m 18,8 km/h (3 Bft) 95,74 %
16.04.2017 10:20 9,6 C 12,2 C 10,6 C 80 % 0 lf 1018,3 hPa 0,0 l/m 2 min 0 min 277 W/m 16,7 km/h (3 Bft) 97,87 %
16.04.2017 10:22 9,6 C 12,8 C 11,1 C 81 % 0 lf 1018,3 hPa 0,0 l/m 2 min 0 min 318 W/m 16,7 km/h (3 Bft) 97,87 %
16.04.2017 10:24 9,6 C 13,3 C 11,7 C 81 % 0 lf 1018,3 hPa 0,0 l/m 2 min 0 min 312 W/m 14,6 km/h (3 Bft) 95,74 %
16.04.2017 10:26 9,6 C 12,8 C 11,1 C 81 % 0 lf 1018,3 hPa 0,0 l/m 0 min 0 min 222 W/m 18,8 km/h (3 Bft) 97,83 %
16.04.2017 10:28 9,7 C 12,2 C 10,6 C 81 % 0 lf 1018,3 hPa 0,0 l/m 0 min 0 min 209 W/m 18,8 km/h (3 Bft) 97,87 %
16.04.2017 10:30 9,7 C 12,2 C 10,6 C 81 % 0 lf 1018,3 hPa 0,0 l/m 0 min 0 min 231 W/m 20,9 km/h (4 Bft) 95,74 %
16.04.2017 10:32 9,7 C 12,2 C 10,6 C 81 % 0 lf 1018,2 hPa 0,0 l/m 0 min 0 min 249 W/m 14,6 km/h (3 Bft) 97,87 %
16.04.2017 10:34 9,7 C 12,8 C 11,7 C 81 % 0 lf 1018,3 hPa 0,0 l/m 2 min 0 min 336 W/m 20,9 km/h (4 Bft) 95,74 %
16.04.2017 10:36 9,8 C 13,9 C 12,2 C 81 % 0 lf 1018,3 hPa 0,0 l/m 2 min 0 min 373 W/m 12,6 km/h (3 Bft) 97,87 %
16.04.2017 10:38 9,8 C 15,0 C 13,9 C 81 % 0 lf 1018,3 hPa 0,0 l/m 2 min 0 min 538 W/m 16,7 km/h (3 Bft) 97,83 %
16.04.2017 10:40 9,9 C 15,6 C 13,9 C 81 % 0 lf 1018,3 hPa 0,0 l/m 2 min 0 min 519 W/m 16,7 km/h (3 Bft) 95,74 %
16.04.2017 10:42 10,0 C 15,0 C 13,3 C 81 % 3 lf 1018,2 hPa 0,0 l/m 2 min 0 min 480 W/m 16,7 km/h (3 Bft) 93,62 %
16.04.2017 10:44 10,1 C 14,4 C 12,8 C 81 % 1 lf 1018,3 hPa 0,0 l/m 0 min 0 min 284 W/m 25,1 km/h (4 Bft) 97,87 %
16.04.2017 10:46 10,2 C 13,9 C 12,2 C 80 % 0 lf 1018,3 hPa 0,0 l/m 0 min 0 min 243 W/m 18,8 km/h (3 Bft) 95,74 %
16.04.2017 10:48 10,2 C 13,3 C 11,7 C 80 % 0 lf 1018,3 hPa 0,0 l/m 0 min 0 min 246 W/m 14,6 km/h (3 Bft) 95,65 %
16.04.2017 10:50 10,2 C 13,3 C 11,7 C 79 % 0 lf 1018,3 hPa 0,0 l/m 0 min 0 min 280 W/m 20,9 km/h (4 Bft) 97,87 %
16.04.2017 10:52 10,3 C 13,3 C 12,2 C 79 % 0 lf 1018,3 hPa 0,0 l/m 2 min 0 min 304 W/m 14,6 km/h (3 Bft) 97,87 %
16.04.2017 10:54 10,3 C 14,4 C 12,2 C 80 % 0 lf 1018,4 hPa 0,0 l/m 2 min 0 min 411 W/m 18,8 km/h (3 Bft) 100,00 %
16.04.2017 10:56 10,3 C 13,9 C 12,2 C 79 % 0 lf 1018,4 hPa 0,0 l/m 2 min 0 min 310 W/m 18,8 km/h (3 Bft) 97,87 %
16.04.2017 10:58 10,4 C 14,4 C 12,8 C 80 % 0 lf 1018,4 hPa 0,0 l/m 2 min 0 min 380 W/m 16,7 km/h (3 Bft) 95,74 %
16.04.2017 11:00 10,4 C 14,4 C 12,8 C 80 % 0 lf 1018,4 hPa 0,0 l/m 2 min 0 min 441 W/m 14,6 km/h (3 Bft) 97,83 %
16.04.2017 11:02 10,5 C 14,4 C 12,8 C 80 % 0 lf 1018,4 hPa 0,0 l/m 2 min 0 min 325 W/m 14,6 km/h (3 Bft) 97,87 %
16.04.2017 11:04 10,5 C 13,9 C 12,2 C 79 % 0 lf 1018,4 hPa 0,0 l/m 0 min 0 min 295 W/m 14,6 km/h (3 Bft) 97,87 %
16.04.2017 11:06 10,6 C 14,4 C 12,8 C 79 % 0 lf 1018,3 hPa 0,0 l/m 2 min 0 min 326 W/m 14,6 km/h (3 Bft) 97,87 %
16.04.2017 11:08 10,6 C 13,9 C 12,2 C 79 % 0 lf 1018,3 hPa 0,0 l/m 0 min 0 min 291 W/m 18,8 km/h (3 Bft) 95,74 %
16.04.2017 11:10 10,6 C 13,3 C 12,2 C 79 % 0 lf 1018,3 hPa 0,0 l/m 0 min 0 min 241 W/m 20,9 km/h (4 Bft) 95,74 %
16.04.2017 11:12 10,6 C 12,8 C 11,7 C 78 % 0 lf 1018,3 hPa 0,0 l/m 0 min 0 min 191 W/m 16,7 km/h (3 Bft) 97,83 %
16.04.2017 11:14 10,6 C 12,2 C 11,1 C 78 % 2 lf 1018,3 hPa 0,0 l/m 0 min 0 min 154 W/m 18,8 km/h (3 Bft) 97,87 %
16.04.2017 11:16 10,5 C 11,7 C 10,6 C 78 % 0 lf 1018,3 hPa 0,0 l/m 0 min 0 min 145 W/m 18,8 km/h (3 Bft) 93,62 %
16.04.2017 11:18 10,4 C 11,7 C 10,6 C 78 % 4 lf 1018,3 hPa 0,0 l/m 0 min 2 min 148 W/m 20,9 km/h (4 Bft) 97,87 %
16.04.2017 11:20 10,4 C 11,1 C 10,0 C 78 % 0 lf 1018,4 hPa 0,0 l/m 0 min 2 min 114 W/m 14,6 km/h (3 Bft) 97,87 %
16.04.2017 11:22 10,4 C 10,6 C 10,0 C 78 % 0 lf 1018,3 hPa 0,0 l/m 0 min 0 min 84 W/m 18,8 km/h (3 Bft) 97,87 %
16.04.2017 11:24 10,3 C 10,0 C 9,4 C 78 % 0 lf 1018,3 hPa 0,0 l/m 0 min 0 min 83 W/m 23,0 km/h (4 Bft) 97,83 %
16.04.2017 11:26 10,2 C 10,0 C 9,4 C 78 % 0 lf 1018,3 hPa 0,0 l/m 0 min 0 min 111 W/m 14,6 km/h (3 Bft) 95,74 %
16.04.2017 11:28 10,2 C 10,6 C 10,0 C 78 % 0 lf 1018,3 hPa 0,0 l/m 0 min 0 min 160 W/m 29,3 km/h (5 Bft) 95,74 %
16.04.2017 11:30 10,1 C 10,6 C 10,0 C 79 % 0 lf 1018,2 hPa 0,0 l/m 0 min 0 min 219 W/m 20,9 km/h (4 Bft) 97,87 %
16.04.2017 11:32 10,1 C 11,1 C 10,6 C 79 % 0 lf 1018,2 hPa 0,0 l/m 0 min 0 min 256 W/m 20,9 km/h (4 Bft) 95,74 %
16.04.2017 11:34 10,0 C 11,1 C 11,1 C 79 % 0 lf 1018,2 hPa 0,0 l/m 0 min 0 min 279 W/m 23,0 km/h (4 Bft) 97,87 %
16.04.2017 11:36 10,0 C 11,7 C 11,1 C 79 % 0 lf 1018,2 hPa 0,0 l/m 0 min 0 min 283 W/m 20,9 km/h (4 Bft) 100,00 %
16.04.2017 11:38 10,0 C 12,2 C 11,7 C 80 % 0 lf 1018,2 hPa 0,0 l/m 0 min 0 min 288 W/m 18,8 km/h (3 Bft) 93,62 %
16.04.2017 11:40 10,0 C 12,2 C 11,7 C 80 % 0 lf 1018,2 hPa 0,0 l/m 0 min 0 min 301 W/m 18,8 km/h (3 Bft) 95,74 %
16.04.2017 11:42 10,0 C 12,2 C 11,7 C 80 % 0 lf 1018,2 hPa 0,0 l/m 0 min 0 min 312 W/m 20,9 km/h (4 Bft) 100,00 %
16.04.2017 11:44 10,0 C 12,8 C 12,2 C 80 % 0 lf 1018,2 hPa 0,0 l/m 0 min 0 min 310 W/m 18,8 km/h (3 Bft) 100,00 %
16.04.2017 11:46 10,1 C 12,8 C 12,2 C 80 % 0 lf 1018,3 hPa 0,0 l/m 2 min 0 min 345 W/m 20,9 km/h (4 Bft) 100,00 %
16.04.2017 11:48 10,2 C 15,0 C 13,9 C 80 % 0 lf 1018,3 hPa 0,0 l/m 2 min 0 min 469 W/m 20,9 km/h (4 Bft) 97,83 %
16.04.2017 11:50 10,2 C 15,6 C 14,4 C 81 % 0 lf 1018,3 hPa 0,0 l/m 2 min 0 min 675 W/m 16,7 km/h (3 Bft) 97,87 %
16.04.2017 11:52 10,4 C 16,1 C 14,4 C 81 % 0 lf 1018,3 hPa 0,0 l/m 2 min 0 min 352 W/m 12,6 km/h (3 Bft) 93,62 %
16.04.2017 11:54 10,4 C 14,4 C 13,9 C 81 % 0 lf 1018,3 hPa 0,0 l/m 0 min 0 min 311 W/m 18,8 km/h (3 Bft) 97,87 %
16.04.2017 11:56 10,5 C 13,9 C 12,8 C 80 % 0 lf 1018,4 hPa 0,0 l/m 0 min 0 min 262 W/m 16,7 km/h (3 Bft) 93,62 %
16.04.2017 11:58 10,6 C 13,9 C 12,8 C 79 % 0 lf 1018,4 hPa 0,0 l/m 0 min 0 min 293 W/m 18,8 km/h (3 Bft) 95,65 %
16.04.2017 12:00 10,6 C 13,9 C 12,8 C 79 % 0 lf 1018,4 hPa 0,0 l/m 0 min 0 min 341 W/m 25,1 km/h (4 Bft) 93,62 %
16.04.2017 12:02 10,6 C 14,4 C 12,8 C 77 % 0 lf 1018,4 hPa 0,0 l/m 2 min 0 min 369 W/m 33,5 km/h (5 Bft) 93,62 %
16.04.2017 12:04 10,6 C 15,0 C 13,3 C 77 % 0 lf 1018,4 hPa 0,0 l/m 2 min 0 min 418 W/m 18,8 km/h (3 Bft) 95,74 %
16.04.2017 12:06 10,7 C 15,6 C 13,9 C 77 % 0 lf 1018,3 hPa 0,0 l/m 2 min 0 min 451 W/m 23,0 km/h (4 Bft) 97,87 %
16.04.2017 12:08 10,8 C 15,6 C 13,9 C 77 % 0 lf 1018,4 hPa 0,0 l/m 2 min 0 min 412 W/m 23,0 km/h (4 Bft) 93,75 %
16.04.2017 12:10 10,8 C 15,6 C 13,9 C 77 % 0 lf 1018,3 hPa 0,0 l/m 2 min 0 min 439 W/m 18,8 km/h (3 Bft) 95,65 %
16.04.2017 12:12 10,9 C 15,6 C 14,4 C 76 % 0 lf 1018,3 hPa 0,0 l/m 2 min 0 min 483 W/m 23,0 km/h (4 Bft) 95,74 %
16.04.2017 12:14 10,9 C 15,0 C 13,9 C 76 % 0 lf 1018,2 hPa 0,0 l/m 2 min 0 min 410 W/m 25,1 km/h (4 Bft) 95,74 %
16.04.2017 12:16 11,0 C 15,0 C 13,3 C 75 % 0 lf 1018,2 hPa 0,0 l/m 0 min 0 min 321 W/m 25,1 km/h (4 Bft) 95,74 %
16.04.2017 12:18 11,0 C 13,9 C 12,8 C 75 % 0 lf 1018,3 hPa 0,0 l/m 0 min 0 min 223 W/m 23,0 km/h (4 Bft) 95,74 %
16.04.2017 12:20 11,0 C 12,8 C 11,7 C 74 % 0 lf 1018,3 hPa 0,0 l/m 0 min 0 min 182 W/m 18,8 km/h (3 Bft) 93,62 %
16.04.2017 12:22 10,9 C 12,2 C 11,7 C 73 % 0 lf 1018,3 hPa 0,0 l/m 0 min 0 min 150 W/m 25,1 km/h (4 Bft) 93,48 %
16.04.2017 12:24 10,9 C 12,2 C 11,1 C 73 % 0 lf 1018,4 hPa 0,0 l/m 0 min 0 min 138 W/m 23,0 km/h (4 Bft) 91,49 %
16.04.2017 12:26 10,8 C 11,7 C 10,6 C 73 % 0 lf 1018,3 hPa 0,0 l/m 0 min 0 min 144 W/m 16,7 km/h (3 Bft) 93,62 %
16.04.2017 12:28 10,8 C 11,7 C 11,1 C 73 % 0 lf 1018,3 hPa 0,0 l/m 0 min 0 min 160 W/m 23,0 km/h (4 Bft) 95,74 %
16.04.2017 12:30 10,8 C 11,7 C 10,6 C 74 % 0 lf 1018,4 hPa 0,0 l/m 0 min 0 min 183 W/m 23,0 km/h (4 Bft) 95,74 %
16.04.2017 12:32 10,7 C 12,2 C 10,6 C 74 % 0 lf 1018,4 hPa 0,0 l/m 0 min 0 min 190 W/m 23,0 km/h (4 Bft) 93,62 %
16.04.2017 12:34 10,6 C 11,7 C 10,6 C 73 % 0 lf 1018,3 hPa 0,0 l/m 0 min 0 min 194 W/m 20,9 km/h (4 Bft) 95,65 %
16.04.2017 12:36 10,5 C 12,2 C 10,6 C 74 % 0 lf 1018,4 hPa 0,0 l/m 0 min 0 min 176 W/m 14,6 km/h (3 Bft) 93,62 %
16.04.2017 12:38 10,5 C 11,7 C 10,6 C 75 % 0 lf 1018,5 hPa 0,0 l/m 0 min 0 min 153 W/m 18,8 km/h (3 Bft) 93,62 %
16.04.2017 12:40 10,4 C 11,1 C 10,6 C 75 % 0 lf 1018,4 hPa 0,0 l/m 0 min 0 min 127 W/m 27,2 km/h (4 Bft) 91,49 %
16.04.2017 12:42 10,4 C 11,1 C 10,0 C 75 % 0 lf 1018,4 hPa 0,0 l/m 0 min 0 min 131 W/m 23,0 km/h (4 Bft) 93,62 %
16.04.2017 12:44 10,3 C 11,1 C 10,0 C 75 % 0 lf 1018,4 hPa 0,0 l/m 0 min 0 min 129 W/m 16,7 km/h (3 Bft) 97,14 %
16.04.2017 12:46 10,3 C 11,1 C 10,0 C 75 % 15 lf 1018,4 hPa 0,0 l/m 0 min 2 min 108 W/m 31,4 km/h (5 Bft) 98,28 %
16.04.2017 12:48 10,2 C 10,6 C 8,9 C 74 % 15 lf 1018,5 hPa 0,0 l/m 0 min 2 min 89 W/m 25,1 km/h (4 Bft) 93,62 %
16.04.2017 12:50 10,1 C 10,0 C 7,8 C 75 % 15 lf 1018,5 hPa 0,0 l/m 0 min 2 min 96 W/m 20,9 km/h (4 Bft) 93,62 %
16.04.2017 12:52 10,1 C 9,4 C 7,8 C 76 % 15 lf 1018,5 hPa 0,0 l/m 0 min 2 min 127 W/m 14,6 km/h (3 Bft) 97,87 %
16.04.2017 12:54 10,0 C 9,4 C 7,8 C 77 % 15 lf 1018,5 hPa 0,0 l/m 0 min 2 min 188 W/m 16,7 km/h (3 Bft) 95,74 %
16.04.2017 12:56 9,9 C 10,0 C 7,8 C 77 % 15 lf 1018,5 hPa 0,0 l/m 0 min 0 min 261 W/m 16,7 km/h (3 Bft) 100,00 %
16.04.2017 12:58 9,8 C 11,1 C 8,9 C 78 % 15 lf 1018,5 hPa 0,0 l/m 0 min 0 min 317 W/m 14,6 km/h (3 Bft) 96,55 %
16.04.2017 13:00 9,8 C 11,7 C 10,0 C 79 % 15 lf 1018,5 hPa 0,0 l/m 0 min 0 min 346 W/m 10,5 km/h (2 Bft) 91,49 %
16.04.2017 13:02 9,8 C 12,8 C 10,6 C 79 % 15 lf 1018,5 hPa 0,0 l/m 0 min 0 min 360 W/m 12,6 km/h (3 Bft) 95,74 %
16.04.2017 13:04 9,8 C 13,3 C 11,1 C 80 % 15 lf 1018,5 hPa 0,0 l/m 2 min 0 min 407 W/m 12,6 km/h (3 Bft) 95,74 %
16.04.2017 13:06 9,8 C 13,3 C 11,7 C 81 % 13 lf 1018,5 hPa 0,0 l/m 2 min 0 min 425 W/m 20,9 km/h (4 Bft) 97,87 %
16.04.2017 13:08 9,8 C 13,3 C 12,2 C 80 % 0 lf 1018,4 hPa 0,0 l/m 2 min 0 min 429 W/m 20,9 km/h (4 Bft) 93,62 %
16.04.2017 13:10 9,8 C 13,3 C 12,8 C 79 % 0 lf 1018,5 hPa 0,0 l/m 2 min 0 min 377 W/m 23,0 km/h (4 Bft) 91,30 %
16.04.2017 13:12 9,8 C 12,8 C 12,8 C 78 % 0 lf 1018,5 hPa 0,0 l/m 0 min 0 min 319 W/m 16,7 km/h (3 Bft) 95,74 %
16.04.2017 13:14 9,9 C 13,3 C 12,2 C 77 % 0 lf 1018,5 hPa 0,0 l/m 0 min 0 min 274 W/m 12,6 km/h (3 Bft) 93,62 %
16.04.2017 13:16 10,0 C 12,8 C 12,2 C 77 % 0 lf 1018,5 hPa 0,0 l/m 0 min 0 min 244 W/m 18,8 km/h (3 Bft) 93,62 %
16.04.2017 13:18 10,1 C 12,8 C 12,2 C 77 % 0 lf 1018,4 hPa 0,0 l/m 0 min 0 min 189 W/m 16,7 km/h (3 Bft) 93,62 %
16.04.2017 13:20 10,1 C 12,2 C 11,7 C 76 % 0 lf 1018,5 hPa 0,0 l/m 0 min 0 min 160 W/m 20,9 km/h (4 Bft) 97,83 %
16.04.2017 13:22 10,1 C 12,2 C 11,1 C 75 % 0 lf 1018,5 hPa 0,0 l/m 0 min 0 min 181 W/m 18,8 km/h (3 Bft) 95,74 %
16.04.2017 13:24 10,1 C 12,2 C 11,1 C 75 % 0 lf 1018,5 hPa 0,0 l/m 0 min 0 min 183 W/m 14,6 km/h (3 Bft) 95,74 %
16.04.2017 13:26 10,1 C 11,7 C 10,6 C 73 % 0 lf 1018,5 hPa 0,0 l/m 0 min 0 min 156 W/m 23,0 km/h (4 Bft) 93,62 %
16.04.2017 13:28 10,1 C 11,7 C 10,6 C 73 % 0 lf 1018,5 hPa 0,0 l/m 0 min 0 min 154 W/m 23,0 km/h (4 Bft) 93,62 %
16.04.2017 13:30 10,1 C 11,7 C 11,1 C 73 % 0 lf 1018,4 hPa 0,0 l/m 0 min 0 min 185 W/m 29,3 km/h (5 Bft) 91,49 %
16.04.2017 13:32 10,1 C 11,7 C 11,1 C 73 % 0 lf 1018,5 hPa 0,0 l/m 0 min 0 min 229 W/m 25,1 km/h (4 Bft) 94,29 %
16.04.2017 13:34 10,1 C 12,2 C 11,7 C 73 % 0 lf 1018,5 hPa 0,0 l/m 0 min 0 min 271 W/m 18,8 km/h (3 Bft) 98,28 %
16.04.2017 13:36 10,2 C 12,8 C 12,2 C 73 % 0 lf 1018,4 hPa 0,0 l/m 0 min 0 min 301 W/m 12,6 km/h (3 Bft) 93,62 %
16.04.2017 13:38 10,2 C 13,3 C 12,2 C 73 % 0 lf 1018,4 hPa 0,0 l/m 0 min 0 min 314 W/m 14,6 km/h (3 Bft) 97,87 %
16.04.2017 13:40 10,3 C 13,3 C 12,2 C 72 % 0 lf 1018,5 hPa 0,0 l/m 0 min 0 min 325 W/m 16,7 km/h (3 Bft) 95,74 %
16.04.2017 13:42 10,3 C 13,9 C 12,8 C 72 % 0 lf 1018,5 hPa 0,0 l/m 0 min 0 min 327 W/m 10,5 km/h (2 Bft) 97,87 %
16.04.2017 13:44 10,4 C 13,9 C 12,8 C 73 % 0 lf 1018,4 hPa 0,0 l/m 0 min 0 min 288 W/m 16,7 km/h (3 Bft) 100,00 %
16.04.2017 13:46 10,5 C 14,4 C 12,2 C 73 % 0 lf 1018,5 hPa 0,0 l/m 0 min 0 min 296 W/m 18,8 km/h (3 Bft) 97,87 %
16.04.2017 13:48 10,6 C 14,4 C 12,2 C 73 % 0 lf 1018,4 hPa 0,0 l/m 0 min 0 min 320 W/m 16,7 km/h (3 Bft) 93,62 %
16.04.2017 13:50 10,6 C 13,9 C 11,7 C 72 % 0 lf 1018,5 hPa 0,0 l/m 0 min 0 min 154 W/m 14,6 km/h (3 Bft) 97,87 %
16.04.2017 13:52 10,6 C 12,8 C 10,6 C 72 % 0 lf 1018,6 hPa 0,0 l/m 0 min 0 min 70 W/m 23,0 km/h (4 Bft) 100,00 %
16.04.2017 13:54 10,6 C 11,7 C 10,0 C 71 % 0 lf 1018,6 hPa 0,0 l/m 0 min 0 min 42 W/m 27,2 km/h (4 Bft) 100,00 %
16.04.2017 13:56 10,5 C 10,6 C 8,9 C 72 % 2 lf 1018,9 hPa 0,0 l/m 0 min 0 min 32 W/m 33,5 km/h (5 Bft) 100,00 %
16.04.2017 13:58 10,3 C 8,9 C 6,7 C 73 % 15 lf 1019,1 hPa 0,4 l/m 0 min 2 min 38 W/m 27,2 km/h (4 Bft) 94,44 %
16.04.2017 14:00 10,1 C 7,2 C 5,6 C 74 % 15 lf 1019,2 hPa 0,2 l/m 0 min 2 min 53 W/m 25,1 km/h (4 Bft) 98,28 %
16.04.2017 14:02 9,7 C 6,7 C 5,6 C 75 % 15 lf 1019,2 hPa 0,0 l/m 0 min 2 min 60 W/m 35,6 km/h (5 Bft) 95,74 %
16.04.2017 14:04 9,4 C 6,7 C 5,6 C 77 % 15 lf 1019,2 hPa 0,2 l/m 0 min 2 min 62 W/m 14,6 km/h (3 Bft) 95,74 %
16.04.2017 14:06 9,2 C 6,7 C 5,6 C 78 % 15 lf 1019,1 hPa 0,2 l/m 0 min 2 min 65 W/m 18,8 km/h (3 Bft) 97,87 %
16.04.2017 14:08 8,9 C 6,1 C 5,6 C 78 % 15 lf 1019,1 hPa 0,0 l/m 0 min 2 min 77 W/m 18,8 km/h (3 Bft) 97,83 %
16.04.2017 14:10 8,8 C 6,7 C 5,6 C 79 % 15 lf 1019,1 hPa 0,2 l/m 0 min 2 min 87 W/m 14,6 km/h (3 Bft) 95,74 %
16.04.2017 14:12 8,6 C 6,7 C 5,6 C 80 % 15 lf 1019,1 hPa 0,0 l/m 0 min 2 min 93 W/m 16,7 km/h (3 Bft) 100,00 %
16.04.2017 14:14 8,5 C 6,7 C 5,6 C 81 % 15 lf 1019,0 hPa 0,0 l/m 0 min 2 min 97 W/m 18,8 km/h (3 Bft) 100,00 %
16.04.2017 14:16 8,3 C 6,7 C 5,6 C 81 % 15 lf 1018,9 hPa 0,0 l/m 0 min 2 min 96 W/m 18,8 km/h (3 Bft) 97,87 %
16.04.2017 14:18 8,2 C 6,7 C 5,6 C 82 % 15 lf 1018,9 hPa 0,0 l/m 0 min 2 min 99 W/m 20,9 km/h (4 Bft) 97,87 %
16.04.2017 14:20 8,1 C 6,7 C 5,6 C 82 % 15 lf 1018,9 hPa 0,0 l/m 0 min 2 min 108 W/m 14,6 km/h (3 Bft) 100,00 %
16.04.2017 14:22 7,9 C 7,2 C 5,6 C 83 % 15 lf 1019,0 hPa 0,0 l/m 0 min 2 min 114 W/m 8,4 km/h (2 Bft) 95,74 %
16.04.2017 14:24 7,9 C 7,2 C 6,1 C 83 % 15 lf 1018,9 hPa 0,0 l/m 0 min 2 min 116 W/m 10,5 km/h (2 Bft) 95,74 %
16.04.2017 14:26 7,8 C 7,2 C 6,1 C 84 % 15 lf 1018,9 hPa 0,0 l/m 0 min 2 min 118 W/m 14,6 km/h (3 Bft) 100,00 %
16.04.2017 14:28 7,8 C 7,2 C 6,1 C 84 % 15 lf 1018,9 hPa 0,0 l/m 0 min 2 min 118 W/m 12,6 km/h (3 Bft) 100,00 %
16.04.2017 14:30 7,7 C 7,2 C 6,1 C 85 % 15 lf 1018,9 hPa 0,0 l/m 0 min 2 min 118 W/m 8,4 km/h (2 Bft) 97,87 %
16.04.2017 14:32 7,7 C 7,8 C 6,1 C 85 % 15 lf 1018,9 hPa 0,0 l/m 0 min 0 min 125 W/m 8,4 km/h (2 Bft) 100,00 %
16.04.2017 14:34 7,7 C 7,8 C 6,7 C 86 % 15 lf 1018,9 hPa 0,0 l/m 0 min 0 min 133 W/m 14,6 km/h (3 Bft) 100,00 %
16.04.2017 14:36 7,7 C 7,8 C 6,7 C 86 % 15 lf 1018,9 hPa 0,0 l/m 0 min 0 min 140 W/m 10,5 km/h (2 Bft) 100,00 %
16.04.2017 14:38 7,7 C 7,8 C 6,7 C 86 % 15 lf 1018,9 hPa 0,0 l/m 0 min 0 min 144 W/m 10,5 km/h (2 Bft) 100,00 %
16.04.2017 14:40 7,7 C 8,3 C 6,7 C 87 % 15 lf 1018,9 hPa 0,0 l/m 0 min 0 min 146 W/m 10,5 km/h (2 Bft) 95,74 %
16.04.2017 14:42 7,7 C 8,3 C 7,2 C 87 % 15 lf 1018,8 hPa 0,0 l/m 0 min 0 min 152 W/m 10,5 km/h (2 Bft) 100,00 %
16.04.2017 14:44 7,7 C 8,3 C 7,2 C 87 % 15 lf 1018,9 hPa 0,0 l/m 0 min 0 min 164 W/m 6,3 km/h (2 Bft) 97,87 %
16.04.2017 14:46 7,7 C 8,3 C 7,8 C 88 % 15 lf 1018,8 hPa 0,0 l/m 0 min 0 min 180 W/m 8,4 km/h (2 Bft) 100,00 %
16.04.2017 14:48 7,8 C 8,9 C 7,8 C 88 % 15 lf 1018,8 hPa 0,0 l/m 0 min 0 min 192 W/m 10,5 km/h (2 Bft) 97,87 %
16.04.2017 14:50 7,8 C 8,9 C 7,8 C 88 % 15 lf 1018,9 hPa 0,0 l/m 0 min 0 min 187 W/m 12,6 km/h (3 Bft) 94,92 %
16.04.2017 14:52 7,8 C 8,9 C 7,8 C 88 % 15 lf 1018,9 hPa 0,0 l/m 0 min 0 min 185 W/m 10,5 km/h (2 Bft) 95,74 %
16.04.2017 14:54 7,9 C 8,9 C 7,8 C 89 % 15 lf 1018,9 hPa 0,0 l/m 0 min 0 min 185 W/m 10,5 km/h (2 Bft) 95,65 %
16.04.2017 14:56 7,9 C 8,9 C 7,8 C 89 % 15 lf 1018,9 hPa 0,0 l/m 0 min 0 min 186 W/m 12,6 km/h (3 Bft) 95,74 %
16.04.2017 14:58 8,0 C 8,9 C 7,8 C 89 % 15 lf 1018,9 hPa 0,0 l/m 0 min 0 min 190 W/m 10,5 km/h (2 Bft) 97,87 %
16.04.2017 15:00 8,1 C 8,9 C 7,8 C 90 % 15 lf 1018,8 hPa 0,0 l/m 0 min 0 min 197 W/m 10,5 km/h (2 Bft) 97,87 %
16.04.2017 15:02 8,1 C 8,9 C 7,8 C 90 % 15 lf 1018,8 hPa 0,0 l/m 0 min 0 min 199 W/m 10,5 km/h (2 Bft) 97,87 %
16.04.2017 15:04 8,1 C 9,4 C 8,3 C 90 % 15 lf 1018,8 hPa 0,0 l/m 0 min 0 min 212 W/m 12,6 km/h (3 Bft) 97,87 %
16.04.2017 15:06 8,2 C 8,9 C 8,3 C 90 % 15 lf 1018,8 hPa 0,0 l/m 0 min 0 min 219 W/m 12,6 km/h (3 Bft) 93,48 %
16.04.2017 15:08 8,2 C 9,4 C 8,3 C 90 % 15 lf 1018,8 hPa 0,0 l/m 0 min 0 min 222 W/m 16,7 km/h (3 Bft) 93,62 %
16.04.2017 15:10 8,2 C 10,0 C 8,3 C 90 % 15 lf 1018,7 hPa 0,0 l/m 0 min 0 min 228 W/m 8,4 km/h (2 Bft) 95,74 %
16.04.2017 15:12 8,3 C 9,4 C 8,3 C 90 % 15 lf 1018,7 hPa 0,0 l/m 0 min 0 min 228 W/m 8,4 km/h (2 Bft) 95,74 %
16.04.2017 15:14 8,3 C 10,0 C 8,9 C 90 % 15 lf 1018,7 hPa 0,0 l/m 0 min 0 min 227 W/m 10,5 km/h (2 Bft) 95,74 %
16.04.2017 15:16 8,4 C 9,4 C 8,9 C 90 % 15 lf 1018,7 hPa 0,0 l/m 0 min 0 min 217 W/m 8,4 km/h (2 Bft) 93,62 %
16.04.2017 15:18 8,4 C 9,4 C 8,3 C 90 % 15 lf 1018,7 hPa 0,0 l/m 0 min 0 min 203 W/m 10,5 km/h (2 Bft) 95,65 %
16.04.2017 15:20 8,5 C 10,0 C 8,9 C 90 % 15 lf 1018,7 hPa 0,0 l/m 0 min 0 min 210 W/m 10,5 km/h (2 Bft) 91,49 %
16.04.2017 15:22 8,5 C 10,0 C 8,9 C 90 % 15 lf 1018,7 hPa 0,0 l/m 0 min 0 min 226 W/m 12,6 km/h (3 Bft) 95,74 %
16.04.2017 15:24 8,6 C 10,0 C 8,9 C 90 % 15 lf 1018,6 hPa 0,0 l/m 0 min 0 min 244 W/m 12,6 km/h (3 Bft) 95,74 %
16.04.2017 15:26 8,7 C 10,0 C 8,9 C 90 % 15 lf 1018,6 hPa 0,0 l/m 0 min 0 min 260 W/m 12,6 km/h (3 Bft) 95,74 %
16.04.2017 15:28 8,7 C 10,6 C 8,9 C 90 % 15 lf 1018,6 hPa 0,0 l/m 0 min 0 min 290 W/m 12,6 km/h (3 Bft) 89,36 %
16.04.2017 15:30 8,7 C 10,6 C 9,4 C 90 % 15 lf 1018,6 hPa 0,0 l/m 2 min 0 min 343 W/m 12,6 km/h (3 Bft) 93,48 %
16.04.2017 15:32 8,8 C 11,7 C 9,4 C 90 % 13 lf 1018,6 hPa 0,0 l/m 2 min 0 min 422 W/m 14,6 km/h (3 Bft) 93,62 %
16.04.2017 15:34 8,9 C 12,8 C 10,0 C 90 % 12 lf 1018,6 hPa 0,0 l/m 2 min 0 min 508 W/m 12,6 km/h (3 Bft) 95,74 %
16.04.2017 15:36 9,0 C 14,4 C 10,6 C 90 % 9 lf 1018,6 hPa 0,0 l/m 2 min 0 min 569 W/m 10,5 km/h (2 Bft) 95,74 %
16.04.2017 15:38 9,2 C 15,6 C 11,1 C 90 % 3 lf 1018,6 hPa 0,0 l/m 2 min 0 min 727 W/m 10,5 km/h (2 Bft) 93,62 %
16.04.2017 15:40 9,4 C 18,3 C 11,7 C 90 % 1 lf 1018,6 hPa 0,0 l/m 2 min 0 min 779 W/m 10,5 km/h (2 Bft) 95,65 %
16.04.2017 15:42 9,6 C 18,9 C 11,7 C 90 % 1 lf 1018,6 hPa 0,0 l/m 2 min 0 min 673 W/m 14,6 km/h (3 Bft) 93,62 %
16.04.2017 15:44 9,7 C 18,9 C 11,1 C 89 % 0 lf 1018,6 hPa 0,0 l/m 2 min 0 min 497 W/m 10,5 km/h (2 Bft) 95,74 %
16.04.2017 15:46 9,8 C 17,8 C 10,6 C 88 % 0 lf 1018,5 hPa 0,0 l/m 2 min 0 min 460 W/m 12,6 km/h (3 Bft) 91,49 %
16.04.2017 15:48 9,9 C 16,1 C 10,0 C 88 % 0 lf 1018,5 hPa 0,0 l/m 2 min 0 min 321 W/m 14,6 km/h (3 Bft) 93,62 %
16.04.2017 15:50 9,9 C 15,6 C 9,4 C 87 % 0 lf 1018,5 hPa 0,0 l/m 2 min 0 min 336 W/m 23,0 km/h (4 Bft) 91,49 %
16.04.2017 15:52 10,0 C 15,6 C 10,0 C 85 % 0 lf 1018,5 hPa 0,0 l/m 2 min 0 min 410 W/m 20,9 km/h (4 Bft) 95,65 %
16.04.2017 15:54 10,1 C 15,6 C 10,6 C 84 % 0 lf 1018,5 hPa 0,0 l/m 2 min 0 min 377 W/m 16,7 km/h (3 Bft) 95,74 %
16.04.2017 15:56 10,2 C 16,1 C 11,1 C 84 % 0 lf 1018,5 hPa 0,0 l/m 2 min 0 min 331 W/m 20,9 km/h (4 Bft) 93,62 %
16.04.2017 15:58 10,2 C 16,1 C 11,7 C 83 % 0 lf 1018,5 hPa 0,0 l/m 0 min 0 min 295 W/m 18,8 km/h (3 Bft) 95,74 %
16.04.2017 16:00 10,3 C 16,7 C 12,8 C 82 % 0 lf 1018,4 hPa 0,0 l/m 2 min 0 min 640 W/m 14,6 km/h (3 Bft) 95,74 %
16.04.2017 16:02 10,5 C 17,8 C 14,4 C 82 % 0 lf 1018,4 hPa 0,0 l/m 2 min 0 min 695 W/m 16,7 km/h (3 Bft) 93,62 %
16.04.2017 16:04 10,6 C 19,4 C 15,0 C 82 % 0 lf 1018,4 hPa 0,0 l/m 2 min 0 min 772 W/m 16,7 km/h (3 Bft) 93,48 %
16.04.2017 16:06 10,8 C 19,4 C 14,4 C 82 % 0 lf 1018,3 hPa 0,0 l/m 2 min 0 min 775 W/m 20,9 km/h (4 Bft) 93,62 %
16.04.2017 16:08 11,1 C 20,0 C 14,4 C 80 % 0 lf 1018,4 hPa 0,0 l/m 2 min 0 min 713 W/m 23,0 km/h (4 Bft) 95,74 %
16.04.2017 16:10 11,2 C 19,4 C 13,3 C 79 % 0 lf 1018,3 hPa 0,0 l/m 2 min 0 min 633 W/m 23,0 km/h (4 Bft) 95,74 %
16.04.2017 16:12 11,3 C 17,8 C 12,2 C 78 % 0 lf 1018,3 hPa 0,0 l/m 2 min 0 min 474 W/m 18,8 km/h (3 Bft) 95,74 %
16.04.2017 16:14 11,4 C 17,2 C 11,7 C 76 % 0 lf 1018,3 hPa 0,0 l/m 2 min 0 min 575 W/m 8,4 km/h (2 Bft) 93,62 %
16.04.2017 16:16 11,4 C 16,7 C 11,1 C 75 % 0 lf 1018,3 hPa 0,0 l/m 2 min 0 min 324 W/m 14,6 km/h (3 Bft) 95,65 %
16.04.2017 16:18 11,4 C 15,6 C 11,1 C 74 % 0 lf 1018,3 hPa 0,0 l/m 0 min 0 min 244 W/m 18,8 km/h (3 Bft) 93,62 %
16.04.2017 16:20 11,4 C 14,4 C 10,6 C 73 % 0 lf 1018,3 hPa 0,0 l/m 0 min 0 min 217 W/m 25,1 km/h (4 Bft) 93,62 %
16.04.2017 16:22 11,4 C 13,3 C 10,0 C 73 % 0 lf 1018,3 hPa 0,0 l/m 0 min 0 min 172 W/m 20,9 km/h (4 Bft) 95,74 %
16.04.2017 16:24 11,4 C 12,8 C 10,0 C 72 % 0 lf 1018,2 hPa 0,0 l/m 0 min 0 min 186 W/m 18,8 km/h (3 Bft) 95,74 %
16.04.2017 16:26 11,3 C 12,8 C 9,4 C 72 % 0 lf 1018,3 hPa 0,0 l/m 0 min 0 min 170 W/m 25,1 km/h (4 Bft) 95,74 %
16.04.2017 16:28 11,2 C 12,8 C 9,4 C 71 % 0 lf 1018,3 hPa 0,0 l/m 0 min 0 min 187 W/m 18,8 km/h (3 Bft) 100,00 %
16.04.2017 16:30 11,2 C 12,8 C 10,0 C 72 % 0 lf 1018,2 hPa 0,0 l/m 0 min 0 min 203 W/m 18,8 km/h (3 Bft) 97,87 %
16.04.2017 16:32 11,1 C 12,8 C 10,0 C 72 % 0 lf 1018,2 hPa 0,0 l/m 0 min 0 min 222 W/m 25,1 km/h (4 Bft) 100,00 %
16.04.2017 16:34 11,1 C 12,8 C 10,0 C 72 % 0 lf 1018,3 hPa 0,0 l/m 0 min 0 min 254 W/m 20,9 km/h (4 Bft) 97,87 %
16.04.2017 16:36 11,1 C 13,9 C 11,1 C 72 % 0 lf 1018,3 hPa 0,0 l/m 2 min 0 min 330 W/m 25,1 km/h (4 Bft) 100,00 %
16.04.2017 16:38 11,1 C 15,0 C 11,7 C 72 % 0 lf 1018,3 hPa 0,0 l/m 2 min 0 min 624 W/m 25,1 km/h (4 Bft) 100,00 %
16.04.2017 16:40 11,1 C 15,0 C 11,1 C 72 % 0 lf 1018,3 hPa 0,0 l/m 2 min 0 min 391 W/m 23,0 km/h (4 Bft) 100,00 %
16.04.2017 16:42 11,1 C 15,0 C 11,1 C 71 % 0 lf 1018,3 hPa 0,0 l/m 2 min 0 min 276 W/m 23,0 km/h (4 Bft) 93,62 %
16.04.2017 16:44 11,1 C 14,4 C 10,6 C 72 % 0 lf 1018,3 hPa 0,0 l/m 0 min 0 min 266 W/m 20,9 km/h (4 Bft) 97,87 %
16.04.2017 16:46 11,1 C 14,4 C 11,1 C 72 % 0 lf 1018,3 hPa 0,0 l/m 0 min 0 min 221 W/m 14,6 km/h (3 Bft) 97,87 %
16.04.2017 16:48 11,1 C 14,4 C 10,6 C 71 % 0 lf 1018,3 hPa 0,0 l/m 0 min 0 min 186 W/m 12,6 km/h (3 Bft) 100,00 %
16.04.2017 16:50 11,2 C 13,9 C 10,6 C 72 % 0 lf 1018,3 hPa 0,0 l/m 0 min 0 min 162 W/m 14,6 km/h (3 Bft) 97,83 %
16.04.2017 16:52 11,1 C 12,8 C 10,6 C 71 % 0 lf 1018,2 hPa 0,0 l/m 0 min 0 min 138 W/m 20,9 km/h (4 Bft) 100,00 %
16.04.2017 16:54 11,1 C 12,2 C 10,0 C 71 % 0 lf 1018,3 hPa 0,0 l/m 0 min 0 min 129 W/m 33,5 km/h (5 Bft) 93,62 %
16.04.2017 16:56 11,1 C 12,2 C 10,0 C 70 % 0 lf 1018,2 hPa 0,0 l/m 0 min 0 min 112 W/m 27,2 km/h (4 Bft) 97,87 %
16.04.2017 16:58 11,0 C 11,7 C 9,4 C 70 % 0 lf 1018,3 hPa 0,0 l/m 0 min 0 min 95 W/m 23,0 km/h (4 Bft) 100,00 %
16.04.2017 17:00 10,9 C 11,7 C 9,4 C 70 % 2 lf 1018,2 hPa 0,0 l/m 0 min 0 min 86 W/m 23,0 km/h (4 Bft) 100,00 %
16.04.2017 17:02 10,8 C 11,1 C 9,4 C 70 % 1 lf 1018,4 hPa 0,0 l/m 0 min 2 min 88 W/m 31,4 km/h (5 Bft) 100,00 %
16.04.2017 17:04 10,7 C 11,1 C 8,9 C 70 % 2 lf 1018,3 hPa 0,0 l/m 0 min 2 min 89 W/m 20,9 km/h (4 Bft) 97,87 %
16.04.2017 17:06 10,7 C 11,1 C 8,9 C 71 % 4 lf 1018,4 hPa 0,0 l/m 0 min 2 min 85 W/m 25,1 km/h (4 Bft) 100,00 %
16.04.2017 17:08 10,6 C 10,6 C 8,9 C 72 % 15 lf 1018,5 hPa 0,0 l/m 0 min 2 min 83 W/m 27,2 km/h (4 Bft) 97,87 %
16.04.2017 17:10 10,5 C 10,6 C 7,8 C 73 % 15 lf 1018,5 hPa 0,0 l/m 0 min 2 min 88 W/m 23,0 km/h (4 Bft) 97,87 %
16.04.2017 17:12 10,4 C 10,0 C 7,2 C 74 % 15 lf 1018,5 hPa 0,0 l/m 0 min 2 min 96 W/m 23,0 km/h (4 Bft) 97,87 %
16.04.2017 17:14 10,2 C 9,4 C 6,7 C 74 % 15 lf 1018,6 hPa 0,0 l/m 0 min 2 min 106 W/m 23,0 km/h (4 Bft) 95,65 %
16.04.2017 17:16 10,0 C 9,4 C 6,7 C 75 % 15 lf 1018,5 hPa 0,0 l/m 0 min 2 min 130 W/m 20,9 km/h (4 Bft) 97,87 %
16.04.2017 17:18 9,9 C 9,4 C 6,7 C 75 % 15 lf 1018,5 hPa 0,0 l/m 0 min 2 min 162 W/m 16,7 km/h (3 Bft) 97,87 %
16.04.2017 17:20 9,7 C 10,0 C 7,2 C 76 % 15 lf 1018,4 hPa 0,0 l/m 0 min 2 min 212 W/m 20,9 km/h (4 Bft) 95,74 %
16.04.2017 17:22 9,6 C 11,7 C 7,2 C 76 % 15 lf 1018,5 hPa 0,0 l/m 2 min 0 min 279 W/m 12,6 km/h (3 Bft) 97,87 %
16.04.2017 17:24 9,6 C 12,8 C 7,8 C 77 % 15 lf 1018,3 hPa 0,0 l/m 2 min 0 min 278 W/m 10,5 km/h (2 Bft) 97,87 %
16.04.2017 17:26 9,6 C 12,8 C 8,3 C 78 % 15 lf 1018,4 hPa 0,0 l/m 2 min 0 min 241 W/m 12,6 km/h (3 Bft) 97,83 %
16.04.2017 17:28 9,5 C 12,2 C 8,3 C 78 % 15 lf 1018,3 hPa 0,0 l/m 0 min 0 min 206 W/m 14,6 km/h (3 Bft) 95,74 %
16.04.2017 17:30 9,4 C 12,2 C 8,3 C 78 % 15 lf 1018,3 hPa 0,0 l/m 0 min 0 min 170 W/m 14,6 km/h (3 Bft) 93,62 %
16.04.2017 17:32 9,4 C 11,7 C 8,3 C 78 % 15 lf 1018,3 hPa 0,0 l/m 0 min 0 min 138 W/m 10,5 km/h (2 Bft) 93,62 %
16.04.2017 17:34 9,4 C 11,1 C 8,3 C 78 % 15 lf 1018,3 hPa 0,0 l/m 0 min 0 min 126 W/m 10,5 km/h (2 Bft) 93,62 %
16.04.2017 17:36 9,4 C 11,1 C 8,9 C 78 % 15 lf 1018,3 hPa 0,0 l/m 0 min 0 min 134 W/m 12,6 km/h (3 Bft) 95,74 %
16.04.2017 17:38 9,4 C 11,1 C 8,9 C 79 % 15 lf 1018,3 hPa 0,0 l/m 0 min 0 min 149 W/m 12,6 km/h (3 Bft) 95,65 %
16.04.2017 17:40 9,3 C 11,1 C 8,9 C 79 % 15 lf 1018,2 hPa 0,0 l/m 0 min 0 min 159 W/m 14,6 km/h (3 Bft) 93,62 %
16.04.2017 17:42 9,3 C 11,1 C 9,4 C 79 % 11 lf 1018,2 hPa 0,0 l/m 0 min 0 min 168 W/m 12,6 km/h (3 Bft) 95,74 %
16.04.2017 17:44 9,3 C 11,1 C 9,4 C 79 % 3 lf 1018,2 hPa 0,0 l/m 0 min 0 min 177 W/m 12,6 km/h (3 Bft) 97,87 %
16.04.2017 17:46 9,3 C 11,1 C 9,4 C 79 % 0 lf 1018,2 hPa 0,0 l/m 0 min 0 min 170 W/m 12,6 km/h (3 Bft) 95,74 %
16.04.2017 17:48 9,3 C 11,1 C 9,4 C 79 % 0 lf 1018,2 hPa 0,0 l/m 0 min 0 min 157 W/m 10,5 km/h (2 Bft) 95,74 %
16.04.2017 17:50 9,3 C 11,1 C 9,4 C 79 % 0 lf 1018,2 hPa 0,0 l/m 0 min 0 min 157 W/m 10,5 km/h (2 Bft) 97,83 %
16.04.2017 17:52 9,3 C 11,1 C 9,4 C 79 % 0 lf 1018,2 hPa 0,0 l/m 0 min 0 min 171 W/m 10,5 km/h (2 Bft) 95,74 %
16.04.2017 17:54 9,3 C 11,1 C 10,0 C 79 % 0 lf 1018,2 hPa 0,0 l/m 0 min 0 min 178 W/m 10,5 km/h (2 Bft) 97,87 %
16.04.2017 17:56 9,4 C 11,7 C 10,0 C 79 % 0 lf 1018,2 hPa 0,0 l/m 0 min 0 min 180 W/m 10,5 km/h (2 Bft) 95,74 %
16.04.2017 17:58 9,4 C 11,7 C 10,0 C 80 % 0 lf 1018,2 hPa 0,0 l/m 0 min 0 min 185 W/m 12,6 km/h (3 Bft) 97,87 %
16.04.2017 18:00 9,4 C 11,7 C 10,0 C 80 % 0 lf 1018,2 hPa 0,0 l/m 2 min 0 min 197 W/m 10,5 km/h (2 Bft) 95,65 %
16.04.2017 18:02 9,4 C 12,2 C 10,0 C 80 % 0 lf 1018,2 hPa 0,0 l/m 2 min 0 min 206 W/m 8,4 km/h (2 Bft) 97,87 %
16.04.2017 18:04 9,5 C 12,2 C 10,6 C 80 % 0 lf 1018,2 hPa 0,0 l/m 2 min 0 min 212 W/m 6,3 km/h (2 Bft) 95,74 %
16.04.2017 18:06 9,6 C 12,2 C 10,6 C 80 % 0 lf 1018,2 hPa 0,0 l/m 2 min 0 min 230 W/m 8,4 km/h (2 Bft) 95,74 %
16.04.2017 18:08 9,6 C 12,2 C 10,6 C 80 % 0 lf 1018,2 hPa 0,0 l/m 2 min 0 min 283 W/m 12,6 km/h (3 Bft) 100,00 %
16.04.2017 18:10 9,6 C 12,8 C 10,6 C 80 % 0 lf 1018,2 hPa 0,0 l/m 2 min 0 min 316 W/m 10,5 km/h (2 Bft) 97,87 %
16.04.2017 18:12 9,7 C 12,2 C 10,6 C 80 % 0 lf 1018,1 hPa 0,0 l/m 2 min 0 min 336 W/m 12,6 km/h (3 Bft) 93,62 %
16.04.2017 18:14 9,7 C 12,2 C 10,6 C 80 % 0 lf 1018,2 hPa 0,0 l/m 2 min 0 min 202 W/m 12,6 km/h (3 Bft) 97,87 %
16.04.2017 18:16 9,7 C 12,2 C 10,6 C 80 % 0 lf 1018,2 hPa 0,0 l/m 0 min 0 min 156 W/m 6,3 km/h (2 Bft) 100,00 %
16.04.2017 18:18 9,8 C 12,2 C 10,6 C 80 % 0 lf 1018,2 hPa 0,0 l/m 0 min 0 min 156 W/m 14,6 km/h (3 Bft) 100,00 %
16.04.2017 18:20 9,9 C 12,2 C 10,6 C 79 % 0 lf 1018,2 hPa 0,0 l/m 2 min 0 min 225 W/m 18,8 km/h (3 Bft) 97,87 %
16.04.2017 18:22 9,9 C 12,2 C 10,0 C 78 % 0 lf 1018,2 hPa 0,0 l/m 2 min 0 min 212 W/m 23,0 km/h (4 Bft) 97,87 %
16.04.2017 18:24 9,9 C 12,2 C 10,0 C 78 % 0 lf 1018,2 hPa 0,0 l/m 2 min 0 min 160 W/m 18,8 km/h (3 Bft) 97,87 %
16.04.2017 18:26 10,0 C 12,2 C 10,0 C 77 % 0 lf 1018,2 hPa 0,0 l/m 0 min 0 min 152 W/m 10,5 km/h (2 Bft) 100,00 %
16.04.2017 18:28 10,0 C 12,2 C 10,0 C 76 % 0 lf 1018,2 hPa 0,0 l/m 2 min 0 min 205 W/m 14,6 km/h (3 Bft) 97,83 %
16.04.2017 18:30 10,0 C 11,7 C 10,0 C 75 % 0 lf 1018,2 hPa 0,0 l/m 2 min 0 min 210 W/m 20,9 km/h (4 Bft) 97,87 %
16.04.2017 18:32 10,1 C 11,7 C 10,0 C 74 % 0 lf 1018,2 hPa 0,0 l/m 2 min 0 min 287 W/m 18,8 km/h (3 Bft) 100,00 %
16.04.2017 18:34 10,1 C 11,7 C 10,0 C 74 % 0 lf 1018,2 hPa 0,0 l/m 2 min 0 min 292 W/m 25,1 km/h (4 Bft) 97,87 %
16.04.2017 18:36 10,2 C 11,7 C 10,0 C 73 % 0 lf 1018,2 hPa 0,0 l/m 2 min 0 min 232 W/m 18,8 km/h (3 Bft) 97,87 %
16.04.2017 18:38 10,2 C 11,7 C 10,0 C 73 % 0 lf 1018,2 hPa 0,0 l/m 2 min 0 min 288 W/m 18,8 km/h (3 Bft) 95,65 %
16.04.2017 18:40 10,2 C 11,7 C 10,0 C 73 % 0 lf 1018,2 hPa 0,0 l/m 2 min 0 min 267 W/m 20,9 km/h (4 Bft) 97,87 %
16.04.2017 18:42 10,3 C 11,7 C 10,0 C 73 % 0 lf 1018,2 hPa 0,0 l/m 2 min 0 min 250 W/m 20,9 km/h (4 Bft) 95,74 %
16.04.2017 18:44 10,3 C 11,7 C 10,0 C 73 % 0 lf 1018,2 hPa 0,0 l/m 2 min 0 min 282 W/m 23,0 km/h (4 Bft) 93,62 %
16.04.2017 18:46 10,3 C 11,7 C 10,0 C 73 % 0 lf 1018,2 hPa 0,0 l/m 2 min 0 min 216 W/m 25,1 km/h (4 Bft) 97,87 %
16.04.2017 18:48 10,3 C 11,1 C 10,0 C 72 % 0 lf 1018,2 hPa 0,0 l/m 0 min 0 min 109 W/m 29,3 km/h (5 Bft) 97,87 %
16.04.2017 18:50 10,3 C 11,1 C 9,4 C 70 % 0 lf 1018,2 hPa 0,0 l/m 0 min 0 min 87 W/m 33,5 km/h (5 Bft) 97,87 %
16.04.2017 18:52 10,3 C 10,6 C 9,4 C 70 % 0 lf 1018,2 hPa 0,0 l/m 0 min 0 min 72 W/m 31,4 km/h (5 Bft) 95,65 %
16.04.2017 18:54 10,3 C 10,6 C 8,9 C 70 % 0 lf 1018,2 hPa 0,0 l/m 0 min 0 min 70 W/m 29,3 km/h (5 Bft) 97,87 %
16.04.2017 18:56 10,2 C 10,6 C 8,9 C 70 % 0 lf 1018,3 hPa 0,0 l/m 0 min 0 min 64 W/m 18,8 km/h (3 Bft) 95,74 %
16.04.2017 18:58 10,2 C 10,0 C 8,3 C 70 % 0 lf 1018,3 hPa 0,0 l/m 0 min 0 min 58 W/m 20,9 km/h (4 Bft) 95,74 %
16.04.2017 19:00 10,1 C 10,0 C 8,3 C 70 % 0 lf 1018,3 hPa 0,0 l/m 0 min 0 min 57 W/m 20,9 km/h (4 Bft) 95,74 %
16.04.2017 19:02 10,1 C 10,0 C 8,3 C 70 % 0 lf 1018,4 hPa 0,0 l/m 0 min 0 min 60 W/m 23,0 km/h (4 Bft) 89,13 %
16.04.2017 19:04 10,0 C 10,0 C 8,3 C 70 % 0 lf 1018,4 hPa 0,0 l/m 0 min 0 min 63 W/m 27,2 km/h (4 Bft) 93,62 %
16.04.2017 19:06 10,0 C 10,0 C 8,3 C 71 % 0 lf 1018,4 hPa 0,0 l/m 0 min 0 min 65 W/m 23,0 km/h (4 Bft) 93,62 %
16.04.2017 19:08 9,9 C 10,0 C 8,3 C 71 % 0 lf 1018,4 hPa 0,0 l/m 0 min 0 min 67 W/m 18,8 km/h (3 Bft) 93,62 %
16.04.2017 19:10 9,9 C 10,0 C 8,3 C 71 % 0 lf 1018,4 hPa 0,0 l/m 0 min 0 min 71 W/m 18,8 km/h (3 Bft) 93,62 %
16.04.2017 19:12 9,9 C 10,0 C 8,3 C 72 % 0 lf 1018,4 hPa 0,0 l/m 0 min 0 min 74 W/m 25,1 km/h (4 Bft) 91,49 %
16.04.2017 19:14 9,8 C 10,0 C 8,3 C 72 % 0 lf 1018,4 hPa 0,0 l/m 0 min 0 min 76 W/m 25,1 km/h (4 Bft) 91,30 %
16.04.2017 19:16 9,7 C 10,0 C 8,3 C 72 % 0 lf 1018,4 hPa 0,0 l/m 0 min 0 min 75 W/m 29,3 km/h (5 Bft) 93,62 %
16.04.2017 19:18 9,7 C 10,0 C 8,3 C 72 % 0 lf 1018,4 hPa 0,0 l/m 0 min 0 min 74 W/m 20,9 km/h (4 Bft) 93,62 %
16.04.2017 19:20 9,7 C 10,0 C 8,3 C 72 % 0 lf 1018,4 hPa 0,0 l/m 0 min 0 min 70 W/m 25,1 km/h (4 Bft) 91,49 %
16.04.2017 19:22 9,6 C 10,0 C 8,3 C 72 % 0 lf 1018,4 hPa 0,0 l/m 0 min 0 min 70 W/m 20,9 km/h (4 Bft) 91,49 %
16.04.2017 19:24 9,6 C 10,0 C 8,3 C 72 % 0 lf 1018,4 hPa 0,0 l/m 0 min 0 min 68 W/m 16,7 km/h (3 Bft) 93,62 %
16.04.2017 19:26 9,6 C 10,0 C 8,3 C 72 % 0 lf 1018,4 hPa 0,0 l/m 0 min 0 min 68 W/m 12,6 km/h (3 Bft) 93,48 %
16.04.2017 19:28 9,5 C 10,0 C 8,3 C 72 % 0 lf 1018,4 hPa 0,0 l/m 0 min 0 min 69 W/m 14,6 km/h (3 Bft) 93,62 %
16.04.2017 19:30 9,5 C 9,4 C 8,3 C 73 % 0 lf 1018,4 hPa 0,0 l/m 0 min 0 min 63 W/m 23,0 km/h (4 Bft) 91,49 %
16.04.2017 19:32 9,4 C 9,4 C 7,8 C 72 % 0 lf 1018,4 hPa 0,0 l/m 0 min 0 min 57 W/m 18,8 km/h (3 Bft) 95,74 %
16.04.2017 19:34 9,4 C 9,4 C 7,8 C 72 % 0 lf 1018,4 hPa 0,0 l/m 0 min 0 min 54 W/m 20,9 km/h (4 Bft) 95,74 %
16.04.2017 19:36 9,4 C 9,4 C 7,8 C 72 % 0 lf 1018,4 hPa 0,0 l/m 0 min 0 min 54 W/m 23,0 km/h (4 Bft) 95,74 %
16.04.2017 19:38 9,4 C 9,4 C 7,8 C 72 % 0 lf 1018,4 hPa 0,0 l/m 0 min 0 min 59 W/m 18,8 km/h (3 Bft) 95,65 %
16.04.2017 19:40 9,3 C 9,4 C 7,8 C 72 % 0 lf 1018,4 hPa 0,0 l/m 2 min 0 min 68 W/m 8,4 km/h (2 Bft) 95,74 %
16.04.2017 19:42 9,3 C 9,4 C 7,8 C 72 % 0 lf 1018,4 hPa 0,0 l/m 2 min 0 min 75 W/m 16,7 km/h (3 Bft) 95,74 %
16.04.2017 19:44 9,3 C 9,4 C 7,8 C 72 % 0 lf 1018,4 hPa 0,0 l/m 2 min 0 min 79 W/m 16,7 km/h (3 Bft) 95,74 %
16.04.2017 19:46 9,3 C 9,4 C 7,8 C 72 % 0 lf 1018,4 hPa 0,0 l/m 2 min 0 min 75 W/m 12,6 km/h (3 Bft) 95,74 %
16.04.2017 19:48 9,3 C 9,4 C 7,8 C 72 % 0 lf 1018,5 hPa 0,0 l/m 2 min 0 min 68 W/m 12,6 km/h (3 Bft) 95,74 %
16.04.2017 19:50 9,2 C 9,4 C 7,8 C 73 % 0 lf 1018,5 hPa 0,0 l/m 2 min 0 min 56 W/m 16,7 km/h (3 Bft) 95,65 %
16.04.2017 19:52 9,2 C 9,4 C 7,8 C 72 % 0 lf 1018,5 hPa 0,0 l/m 0 min 0 min 44 W/m 12,6 km/h (3 Bft) 95,74 %
16.04.2017 19:54 9,2 C 9,4 C 7,2 C 72 % 0 lf 1018,4 hPa 0,0 l/m 0 min 0 min 36 W/m 8,4 km/h (2 Bft) 97,87 %
16.04.2017 19:56 9,2 C 8,9 C 7,2 C 72 % 0 lf 1018,5 hPa 0,0 l/m 0 min 0 min 30 W/m 12,6 km/h (3 Bft) 93,62 %
16.04.2017 19:58 9,2 C 8,9 C 7,2 C 72 % 0 lf 1018,5 hPa 0,0 l/m 0 min 0 min 26 W/m 12,6 km/h (3 Bft) 93,62 %
16.04.2017 20:00 9,1 C 8,3 C 6,7 C 72 % 0 lf 1018,5 hPa 0,0 l/m 0 min 0 min 24 W/m 16,7 km/h (3 Bft) 100,00 %
16.04.2017 20:02 9,1 C 8,3 C 6,7 C 72 % 0 lf 1018,6 hPa 0,0 l/m 0 min 0 min 22 W/m 12,6 km/h (3 Bft) 95,74 %
16.04.2017 20:04 9,1 C 8,3 C 6,7 C 72 % 0 lf 1018,5 hPa 0,0 l/m 0 min 0 min 21 W/m 12,6 km/h (3 Bft) 95,74 %
16.04.2017 20:06 9,0 C 8,3 C 6,1 C 72 % 0 lf 1018,6 hPa 0,0 l/m 0 min 0 min 20 W/m 10,5 km/h (2 Bft) 97,87 %
16.04.2017 20:08 9,0 C 8,3 C 6,1 C 72 % 0 lf 1018,6 hPa 0,0 l/m 0 min 0 min 18 W/m 16,7 km/h (3 Bft) 97,87 %
16.04.2017 20:10 8,9 C 8,3 C 6,1 C 72 % 0 lf 1018,5 hPa 0,0 l/m 0 min 0 min 17 W/m 14,6 km/h (3 Bft) 95,74 %
16.04.2017 20:12 8,9 C 7,8 C 6,1 C 72 % 0 lf 1018,6 hPa 0,0 l/m 0 min 0 min 16 W/m 12,6 km/h (3 Bft) 97,83 %
16.04.2017 20:14 8,8 C 7,8 C 6,1 C 72 % 0 lf 1018,6 hPa 0,0 l/m 0 min 0 min 16 W/m 12,6 km/h (3 Bft) 97,87 %
16.04.2017 20:16 8,7 C 7,8 C 6,1 C 72 % 0 lf 1018,6 hPa 0,0 l/m 0 min 0 min 14 W/m 12,6 km/h (3 Bft) 97,87 %
16.04.2017 20:18 8,7 C 7,8 C 5,6 C 72 % 0 lf 1018,6 hPa 0,0 l/m 0 min 0 min 14 W/m 10,5 km/h (2 Bft) 93,62 %
16.04.2017 20:20 8,7 C 7,8 C 5,6 C 72 % 0 lf 1018,6 hPa 0,0 l/m 0 min 0 min 14 W/m 14,6 km/h (3 Bft) 94,92 %
16.04.2017 20:22 8,7 C 7,2 C 5,6 C 72 % 0 lf 1018,7 hPa 0,0 l/m 0 min 0 min 12 W/m 6,3 km/h (2 Bft) 100,00 %
16.04.2017 20:24 8,6 C 7,2 C 5,0 C 72 % 0 lf 1018,7 hPa 0,0 l/m 0 min 0 min 12 W/m 8,4 km/h (2 Bft) 97,83 %
16.04.2017 20:26 8,6 C 7,2 C 5,0 C 72 % 0 lf 1018,6 hPa 0,0 l/m 0 min 0 min 11 W/m 10,5 km/h (2 Bft) 93,62 %
16.04.2017 20:28 8,5 C 7,2 C 5,0 C 72 % 0 lf 1018,7 hPa 0,0 l/m 0 min 0 min 11 W/m 14,6 km/h (3 Bft) 93,62 %
16.04.2017 20:30 8,4 C 7,2 C 5,0 C 72 % 0 lf 1018,7 hPa 0,0 l/m 0 min 0 min 10 W/m 12,6 km/h (3 Bft) 97,87 %
16.04.2017 20:32 8,4 C 7,2 C 5,0 C 73 % 0 lf 1018,7 hPa 0,0 l/m 0 min 0 min 9 W/m 10,5 km/h (2 Bft) 97,87 %
16.04.2017 20:34 8,3 C 7,2 C 5,0 C 73 % 0 lf 1018,7 hPa 0,0 l/m 0 min 0 min 8 W/m 10,5 km/h (2 Bft) 95,74 %
16.04.2017 20:36 8,3 C 7,2 C 5,0 C 73 % 0 lf 1018,7 hPa 0,0 l/m 0 min 0 min 7 W/m 10,5 km/h (2 Bft) 95,65 %
16.04.2017 20:38 8,3 C 6,7 C 5,0 C 73 % 0 lf 1018,7 hPa 0,0 l/m 0 min 0 min 7 W/m 10,5 km/h (2 Bft) 97,87 %
16.04.2017 20:40 8,2 C 6,7 C 5,0 C 73 % 0 lf 1018,7 hPa 0,0 l/m 0 min 0 min 5 W/m 12,6 km/h (3 Bft) 97,87 %
16.04.2017 20:42 8,2 C 7,2 C 5,0 C 73 % 0 lf 1018,8 hPa 0,0 l/m 0 min 0 min 5 W/m 10,5 km/h (2 Bft) 93,62 %
16.04.2017 20:44 8,1 C 6,7 C 5,0 C 73 % 0 lf 1018,8 hPa 0,0 l/m 0 min 0 min 5 W/m 10,5 km/h (2 Bft) 97,87 %
16.04.2017 20:46 8,1 C 6,7 C 4,4 C 73 % 0 lf 1018,7 hPa 0,0 l/m 0 min 0 min 5 W/m 10,5 km/h (2 Bft) 97,87 %
16.04.2017 20:48 8,1 C 6,7 C 5,0 C 73 % 0 lf 1018,9 hPa 0,0 l/m 0 min 0 min 2 W/m 10,5 km/h (2 Bft) 95,65 %
16.04.2017 20:50 8,0 C 6,7 C 4,4 C 73 % 0 lf 1018,9 hPa 0,0 l/m 0 min 0 min 0 W/m 6,3 km/h (2 Bft) 97,87 %
16.04.2017 20:52 7,9 C 6,7 C 4,4 C 74 % 0 lf 1018,9 hPa 0,0 l/m 0 min 0 min 0 W/m 8,4 km/h (2 Bft) 97,87 %
16.04.2017 20:54 7,9 C 6,7 C 4,4 C 73 % 0 lf 1018,9 hPa 0,0 l/m 0 min 0 min 0 W/m 8,4 km/h (2 Bft) 91,49 %
16.04.2017 20:56 7,9 C 6,1 C 4,4 C 73 % 0 lf 1018,9 hPa 0,0 l/m 0 min 0 min 0 W/m 6,3 km/h (2 Bft) 95,74 %
16.04.2017 20:58 7,8 C 6,1 C 4,4 C 73 % 0 lf 1019,0 hPa 0,0 l/m 0 min 0 min 0 W/m 10,5 km/h (2 Bft) 95,74 %
16.04.2017 21:00 7,8 C 6,1 C 4,4 C 74 % 0 lf 1019,0 hPa 0,0 l/m 0 min 0 min 0 W/m 6,3 km/h (2 Bft) 97,83 %
16.04.2017 21:02 7,8 C 6,1 C 4,4 C 74 % 0 lf 1019,0 hPa 0,0 l/m 0 min 0 min 0 W/m 6,3 km/h (2 Bft) 95,74 %
16.04.2017 21:04 7,7 C 6,1 C 4,4 C 74 % 0 lf 1019,0 hPa 0,0 l/m 0 min 0 min 0 W/m 6,3 km/h (2 Bft) 97,87 %
16.04.2017 21:06 7,7 C 6,1 C 4,4 C 74 % 0 lf 1019,0 hPa 0,0 l/m 0 min 0 min 0 W/m 6,3 km/h (2 Bft) 97,87 %
16.04.2017 21:08 7,7 C 6,1 C 3,9 C 74 % 0 lf 1019,1 hPa 0,0 l/m 0 min 0 min 0 W/m 8,4 km/h (2 Bft) 97,87 %
16.04.2017 21:10 7,6 C 6,1 C 3,9 C 74 % 0 lf 1019,1 hPa 0,0 l/m 0 min 0 min 0 W/m 6,3 km/h (2 Bft) 95,65 %
16.04.2017 21:12 7,6 C 6,1 C 3,9 C 74 % 0 lf 1019,1 hPa 0,0 l/m 0 min 0 min 0 W/m 8,4 km/h (2 Bft) 95,74 %
16.04.2017 21:14 7,5 C 6,1 C 3,9 C 74 % 0 lf 1019,1 hPa 0,0 l/m 0 min 0 min 0 W/m 6,3 km/h (2 Bft) 97,87 %
16.04.2017 21:16 7,4 C 6,1 C 3,9 C 74 % 0 lf 1019,1 hPa 0,0 l/m 0 min 0 min 0 W/m 4,2 km/h (1 Bft) 97,87 %
16.04.2017 21:18 7,4 C 6,1 C 3,9 C 74 % 0 lf 1019,1 hPa 0,0 l/m 0 min 0 min 0 W/m 4,2 km/h (1 Bft) 97,87 %
16.04.2017 21:20 7,4 C 6,1 C 3,9 C 75 % 0 lf 1019,1 hPa 0,0 l/m 0 min 0 min 0 W/m 4,2 km/h (1 Bft) 97,87 %
16.04.2017 21:22 7,3 C 6,1 C 4,4 C 75 % 0 lf 1019,1 hPa 0,0 l/m 0 min 0 min 0 W/m 4,2 km/h (1 Bft) 97,83 %
16.04.2017 21:24 7,3 C 6,1 C 4,4 C 75 % 0 lf 1019,1 hPa 0,0 l/m 0 min 0 min 0 W/m 8,4 km/h (2 Bft) 97,87 %
16.04.2017 21:26 7,3 C 6,1 C 4,4 C 75 % 0 lf 1019,1 hPa 0,0 l/m 0 min 0 min 2 W/m 6,3 km/h (2 Bft) 97,87 %
16.04.2017 21:28 7,2 C 6,1 C 4,4 C 75 % 0 lf 1019,0 hPa 0,0 l/m 0 min 0 min 5 W/m 6,3 km/h (2 Bft) 95,74 %
16.04.2017 21:30 7,2 C 6,1 C 4,4 C 75 % 0 lf 1019,0 hPa 0,0 l/m 0 min 0 min 5 W/m 4,2 km/h (1 Bft) 95,74 %
16.04.2017 21:32 7,1 C 6,1 C 4,4 C 75 % 0 lf 1018,9 hPa 0,0 l/m 0 min 0 min 5 W/m 6,3 km/h (2 Bft) 97,87 %
16.04.2017 21:34 7,1 C 6,1 C 4,4 C 75 % 0 lf 1019,0 hPa 0,0 l/m 0 min 0 min 5 W/m 6,3 km/h (2 Bft) 100,00 %
16.04.2017 21:36 7,1 C 6,1 C 4,4 C 75 % 0 lf 1019,0 hPa 0,0 l/m 0 min 0 min 5 W/m 6,3 km/h (2 Bft) 100,00 %
16.04.2017 21:38 7,1 C 6,1 C 4,4 C 75 % 0 lf 1019,0 hPa 0,0 l/m 0 min 0 min 5 W/m 6,3 km/h (2 Bft) 95,74 %
16.04.2017 21:40 7,0 C 6,1 C 4,4 C 75 % 0 lf 1018,9 hPa 0,0 l/m 0 min 0 min 5 W/m 4,2 km/h (1 Bft) 95,74 %
16.04.2017 21:42 7,0 C 6,1 C 4,4 C 75 % 0 lf 1019,1 hPa 0,0 l/m 0 min 0 min 5 W/m 4,2 km/h (1 Bft) 97,87 %
16.04.2017 21:44 6,9 C 6,1 C 3,9 C 75 % 0 lf 1019,0 hPa 0,0 l/m 0 min 0 min 5 W/m 4,2 km/h (1 Bft) 97,87 %
16.04.2017 21:46 6,9 C 6,1 C 3,9 C 75 % 0 lf 1019,0 hPa 0,0 l/m 0 min 0 min 5 W/m 6,3 km/h (2 Bft) 95,65 %
16.04.2017 21:48 6,9 C 5,6 C 3,9 C 75 % 0 lf 1019,1 hPa 0,0 l/m 0 min 0 min 4 W/m 6,3 km/h (2 Bft) 98,00 %
16.04.2017 21:50 6,9 C 6,1 C 3,9 C 76 % 0 lf 1019,0 hPa 0,0 l/m 0 min 0 min 0 W/m 6,3 km/h (2 Bft) 97,83 %
16.04.2017 21:52 6,8 C 5,6 C 3,9 C 76 % 0 lf 1019,0 hPa 0,0 l/m 0 min 0 min 0 W/m 8,4 km/h (2 Bft) 93,62 %
16.04.2017 21:54 6,8 C 6,1 C 3,9 C 76 % 0 lf 1019,1 hPa 0,0 l/m 0 min 0 min 0 W/m 8,4 km/h (2 Bft) 95,74 %
16.04.2017 21:56 6,8 C 6,1 C 3,9 C 76 % 0 lf 1019,1 hPa 0,0 l/m 0 min 0 min 4 W/m 8,4 km/h (2 Bft) 97,87 %
16.04.2017 21:58 6,8 C 6,1 C 3,9 C 76 % 0 lf 1019,1 hPa 0,0 l/m 0 min 0 min 5 W/m 6,3 km/h (2 Bft) 95,74 %
16.04.2017 22:00 6,7 C 6,1 C 3,9 C 76 % 0 lf 1019,1 hPa 0,0 l/m 0 min 0 min 5 W/m 8,4 km/h (2 Bft) 97,87 %
16.04.2017 22:02 6,7 C 6,1 C 3,9 C 76 % 0 lf 1019,1 hPa 0,0 l/m 0 min 0 min 5 W/m 4,2 km/h (1 Bft) 97,83 %
16.04.2017 22:04 6,7 C 6,1 C 3,9 C 76 % 0 lf 1019,1 hPa 0,0 l/m 0 min 0 min 5 W/m 8,4 km/h (2 Bft) 97,87 %
16.04.2017 22:06 6,6 C 6,1 C 3,9 C 76 % 0 lf 1019,2 hPa 0,0 l/m 0 min 0 min 2 W/m 12,6 km/h (3 Bft) 97,87 %
16.04.2017 22:08 6,6 C 5,6 C 3,9 C 77 % 0 lf 1019,2 hPa 0,0 l/m 0 min 0 min 0 W/m 8,4 km/h (2 Bft) 93,62 %
16.04.2017 22:10 6,6 C 5,6 C 3,9 C 77 % 0 lf 1019,2 hPa 0,0 l/m 0 min 0 min 5 W/m 8,4 km/h (2 Bft) 91,49 %
16.04.2017 22:12 6,6 C 5,6 C 3,3 C 77 % 0 lf 1019,2 hPa 0,0 l/m 0 min 0 min 2 W/m 6,3 km/h (2 Bft) 95,74 %
16.04.2017 22:14 6,5 C 5,6 C 3,9 C 77 % 0 lf 1019,2 hPa 0,0 l/m 0 min 0 min 0 W/m 6,3 km/h (2 Bft) 97,83 %
16.04.2017 22:16 6,5 C 5,6 C 3,3 C 77 % 0 lf 1019,2 hPa 0,0 l/m 0 min 0 min 0 W/m 6,3 km/h (2 Bft) 97,87 %
16.04.2017 22:18 6,4 C 5,6 C 3,3 C 77 % 0 lf 1019,1 hPa 0,0 l/m 0 min 0 min 0 W/m 8,4 km/h (2 Bft) 97,87 %
16.04.2017 22:20 6,4 C 5,6 C 3,3 C 77 % 0 lf 1019,1 hPa 0,0 l/m 0 min 0 min 0 W/m 8,4 km/h (2 Bft) 95,74 %
16.04.2017 22:22 6,4 C 5,6 C 3,3 C 77 % 0 lf 1019,1 hPa 0,0 l/m 0 min 0 min 0 W/m 6,3 km/h (2 Bft) 97,87 %
16.04.2017 22:24 6,4 C 5,0 C 3,3 C 77 % 0 lf 1019,1 hPa 0,0 l/m 0 min 0 min 0 W/m 6,3 km/h (2 Bft) 97,87 %
16.04.2017 22:26 6,4 C 5,0 C 3,3 C 77 % 0 lf 1019,1 hPa 0,0 l/m 0 min 0 min 0 W/m 10,5 km/h (2 Bft) 95,65 %
16.04.2017 22:28 6,4 C 5,0 C 3,3 C 77 % 0 lf 1019,1 hPa 0,0 l/m 0 min 0 min 0 W/m 6,3 km/h (2 Bft) 97,87 %
16.04.2017 22:30 6,3 C 5,0 C 3,3 C 77 % 0 lf 1019,2 hPa 0,0 l/m 0 min 0 min 0 W/m 8,4 km/h (2 Bft) 93,62 %
16.04.2017 22:32 6,3 C 5,0 C 3,3 C 77 % 0 lf 1019,2 hPa 0,0 l/m 0 min 0 min 0 W/m 8,4 km/h (2 Bft) 93,62 %
16.04.2017 22:34 6,3 C 5,0 C 3,3 C 77 % 0 lf 1019,2 hPa 0,0 l/m 0 min 0 min 0 W/m 6,3 km/h (2 Bft) 93,62 %
16.04.2017 22:36 6,2 C 5,0 C 3,3 C 77 % 0 lf 1019,2 hPa 0,0 l/m 0 min 0 min 0 W/m 6,3 km/h (2 Bft) 91,49 %
16.04.2017 22:38 6,2 C 5,0 C 3,3 C 77 % 0 lf 1019,2 hPa 0,0 l/m 0 min 0 min 0 W/m 4,2 km/h (1 Bft) 93,48 %
16.04.2017 22:40 6,2 C 5,0 C 3,3 C 77 % 0 lf 1019,2 hPa 0,0 l/m 0 min 0 min 0 W/m 4,2 km/h (1 Bft) 97,87 %
16.04.2017 22:42 6,2 C 5,0 C 3,3 C 77 % 0 lf 1019,2 hPa 0,0 l/m 0 min 0 min 0 W/m 4,2 km/h (1 Bft) 95,74 %
16.04.2017 22:44 6,1 C 5,0 C 3,3 C 77 % 0 lf 1019,1 hPa 0,0 l/m 0 min 0 min 0 W/m 6,3 km/h (2 Bft) 97,87 %
16.04.2017 22:46 6,1 C 5,0 C 3,3 C 77 % 0 lf 1019,1 hPa 0,0 l/m 0 min 0 min 0 W/m 6,3 km/h (2 Bft) 95,74 %
16.04.2017 22:48 6,1 C 5,0 C 3,3 C 77 % 0 lf 1019,1 hPa 0,0 l/m 0 min 0 min 0 W/m 4,2 km/h (1 Bft) 93,62 %
16.04.2017 22:50 6,1 C 5,0 C 3,3 C 77 % 0 lf 1019,1 hPa 0,0 l/m 0 min 0 min 0 W/m 2,1 km/h (1 Bft) 95,65 %
16.04.2017 22:52 6,0 C 5,0 C 3,3 C 77 % 0 lf 1019,1 hPa 0,0 l/m 0 min 0 min 0 W/m 2,1 km/h (1 Bft) 93,62 %
16.04.2017 22:54 6,0 C 5,0 C 3,3 C 77 % 0 lf 1019,0 hPa 0,0 l/m 0 min 0 min 0 W/m 2,1 km/h (1 Bft) 95,74 %
16.04.2017 22:56 6,0 C 5,0 C 3,3 C 77 % 0 lf 1019,0 hPa 0,0 l/m 0 min 0 min 0 W/m 2,1 km/h (1 Bft) 91,49 %
16.04.2017 22:58 5,9 C 5,0 C 3,3 C 77 % 0 lf 1019,1 hPa 0,0 l/m 0 min 0 min 0 W/m 4,2 km/h (1 Bft) 95,74 %
16.04.2017 23:00 5,9 C 5,0 C 3,3 C 77 % 0 lf 1019,1 hPa 0,0 l/m 0 min 0 min 0 W/m 4,2 km/h (1 Bft) 95,65 %
16.04.2017 23:02 5,9 C 5,0 C 3,3 C 77 % 0 lf 1019,1 hPa 0,0 l/m 0 min 0 min 0 W/m 4,2 km/h (1 Bft) 95,74 %
16.04.2017 23:04 5,9 C 5,0 C 3,9 C 77 % 0 lf 1019,1 hPa 0,0 l/m 0 min 0 min 0 W/m 4,2 km/h (1 Bft) 91,49 %
16.04.2017 23:06 5,8 C 5,6 C 3,9 C 78 % 0 lf 1019,1 hPa 0,0 l/m 0 min 0 min 0 W/m 4,2 km/h (1 Bft) 95,74 %
16.04.2017 23:08 5,8 C 5,6 C 3,9 C 78 % 0 lf 1019,1 hPa 0,0 l/m 0 min 0 min 0 W/m 6,3 km/h (2 Bft) 93,62 %
16.04.2017 23:10 5,8 C 5,6 C 3,9 C 78 % 0 lf 1019,0 hPa 0,0 l/m 0 min 0 min 0 W/m 6,3 km/h (2 Bft) 95,74 %
16.04.2017 23:12 5,8 C 5,6 C 3,9 C 78 % 0 lf 1019,1 hPa 0,0 l/m 0 min 0 min 0 W/m 6,3 km/h (2 Bft) 91,30 %
16.04.2017 23:14 5,8 C 5,6 C 3,9 C 78 % 0 lf 1019,0 hPa 0,0 l/m 0 min 0 min 0 W/m 6,3 km/h (2 Bft) 95,74 %
16.04.2017 23:16 5,8 C 5,6 C 3,9 C 78 % 0 lf 1019,0 hPa 0,0 l/m 0 min 0 min 0 W/m 6,3 km/h (2 Bft) 97,87 %
16.04.2017 23:18 5,8 C 6,1 C 4,4 C 79 % 0 lf 1019,1 hPa 0,0 l/m 0 min 0 min 0 W/m 4,2 km/h (1 Bft) 95,74 %
16.04.2017 23:20 5,7 C 6,1 C 4,4 C 79 % 0 lf 1019,1 hPa 0,0 l/m 0 min 0 min 0 W/m 6,3 km/h (2 Bft) 93,62 %
16.04.2017 23:22 5,7 C 6,1 C 4,4 C 79 % 0 lf 1019,1 hPa 0,0 l/m 0 min 0 min 0 W/m 6,3 km/h (2 Bft) 95,74 %
16.04.2017 23:24 5,7 C 6,1 C 4,4 C 80 % 0 lf 1019,0 hPa 0,0 l/m 0 min 0 min 0 W/m 4,2 km/h (1 Bft) 95,65 %
16.04.2017 23:26 5,7 C 6,1 C 4,4 C 79 % 0 lf 1019,0 hPa 0,0 l/m 0 min 0 min 0 W/m 6,3 km/h (2 Bft) 95,74 %
16.04.2017 23:28 5,7 C 6,1 C 4,4 C 80 % 0 lf 1018,9 hPa 0,0 l/m 0 min 0 min 0 W/m 6,3 km/h (2 Bft) 95,74 %
16.04.2017 23:30 5,7 C 6,1 C 4,4 C 80 % 0 lf 1018,9 hPa 0,0 l/m 0 min 0 min 0 W/m 4,2 km/h (1 Bft) 95,74 %
16.04.2017 23:32 5,7 C 6,1 C 4,4 C 80 % 0 lf 1018,8 hPa 0,0 l/m 0 min 0 min 0 W/m 6,3 km/h (2 Bft) 97,87 %
16.04.2017 23:34 5,7 C 6,1 C 4,4 C 80 % 0 lf 1018,8 hPa 0,0 l/m 0 min 0 min 0 W/m 4,2 km/h (1 Bft) 97,87 %
16.04.2017 23:36 5,7 C 6,1 C 4,4 C 80 % 0 lf 1018,8 hPa 0,0 l/m 0 min 0 min 0 W/m 4,2 km/h (1 Bft) 95,65 %
16.04.2017 23:38 5,7 C 6,1 C 4,4 C 80 % 0 lf 1018,7 hPa 0,0 l/m 0 min 0 min 0 W/m 4,2 km/h (1 Bft) 95,74 %
16.04.2017 23:40 5,7 C 6,1 C 4,4 C 80 % 0 lf 1018,7 hPa 0,0 l/m 0 min 0 min 0 W/m 4,2 km/h (1 Bft) 97,87 %
16.04.2017 23:42 5,7 C 6,1 C 4,4 C 80 % 0 lf 1018,6 hPa 0,0 l/m 0 min 0 min 0 W/m 4,2 km/h (1 Bft) 97,87 %
16.04.2017 23:44 5,7 C 6,1 C 4,4 C 81 % 0 lf 1018,7 hPa 0,0 l/m 0 min 0 min 0 W/m 6,3 km/h (2 Bft) 95,74 %
16.04.2017 23:46 5,7 C 6,1 C 4,4 C 81 % 0 lf 1018,6 hPa 0,0 l/m 0 min 0 min 0 W/m 4,2 km/h (1 Bft) 93,62 %
16.04.2017 23:48 5,7 C 6,1 C 4,4 C 81 % 0 lf 1018,6 hPa 0,0 l/m 0 min 0 min 0 W/m 4,2 km/h (1 Bft) 97,83 %
16.04.2017 23:50 5,7 C 6,1 C 4,4 C 81 % 0 lf 1018,6 hPa 0,0 l/m 0 min 0 min 0 W/m 6,3 km/h (2 Bft) 97,87 %
16.04.2017 23:52 5,8 C 6,1 C 4,4 C 81 % 0 lf 1018,6 hPa 0,0 l/m 0 min 0 min 0 W/m 6,3 km/h (2 Bft) 97,87 %
16.04.2017 23:54 5,7 C 6,1 C 4,4 C 81 % 0 lf 1018,6 hPa 0,0 l/m 0 min 0 min 0 W/m 6,3 km/h (2 Bft) 97,87 %
16.04.2017 23:56 5,8 C 6,1 C 4,4 C 81 % 0 lf 1018,6 hPa 0,0 l/m 0 min 0 min 0 W/m 8,4 km/h (2 Bft) 97,87 %
16.04.2017 23:58 5,8 C 6,1 C 4,4 C 81 % 0 lf 1018,6 hPa 0,0 l/m 0 min 0 min 0 W/m 8,4 km/h (2 Bft) 95,74 %
_ Min-Zeit 00:10 00:00 00:00 16:56 00:00 00:12 - - - - 22:50 04:16
Minimum _ 5,1 C 5,0 C 2,8 C 70 % 0 lf 1016,3 hPa - - - - 2,1 km/h (1 Bft) 87,23 %
_ Max-Zeit 16:18 16:08 16:04 15:00 12:46 14:00 13:58 06:58 01:48 15:40 14:02 02:02
Maximum _ 11,5 C 20,0 C 15,0 C 90 % 15 lf 1019,2 hPa 0,4 l/m 2 min 2 min 779 W/m 35,6 km/h
NW (5 Bft)
100,00 %
Durchschnitt _ 7,8 C 8,8 C 6,9 C 80 % 2 lf 1018,0 hPa #1,2 l/m #4:46 h #1:10 h 184 W/m 13,8 km/h (3 Bft) 96,22 %
© 2017 W. Hausmann